GFSGBSN_sfc_temp_045.txt.gz
Temp
60 60 60 60 60 60 60 61 60 60 59 59 59 59 59 60 60 60 59 59 59 59 59 59 60 59 66 71 78 83 68 68 80 83 83 82 80 80 75 77 78 75 77 80 80 78 78
59 59 59 60 59 60 61 60 60 59 59 59 59 59 58 59 59 59 59 58 58 58 58 59 59 58 68 64 89 88 86 82 87 85 84 85 82 83 78 78 76 78 78 77 78 77 78
59 59 59 59 59 59 58 59 59 59 59 59 58 59 58 58 58 58 58 58 58 58 58 59 59 67 65 70 89 90 87 86 89 88 84 87 86 81 81 76 81 79 73 76 74 76 75
59 59 59 58 58 58 58 58 58 59 59 59 59 58 58 57 57 57 57 57 57 58 58 58 58 69 65 86 90 86 88 86 88 90 86 88 87 81 79 82 78 74 75 61 75 77 78
59 59 59 59 58 58 57 58 57 58 59 58 58 58 58 57 56 56 56 56 57 58 58 58 63 66 67 74 77 84 89 84 86 86 86 87 83 79 80 72 69 72 63 62 65 78 73
59 59 59 58 58 58 58 58 58 57 57 58 58 58 58 57 56 56 55 56 61 58 62 70 71 62 72 74 82 86 88 87 82 81 78 77 77 73 74 71 60 64 64 68 63 55 75
58 58 58 58 58 58 58 58 58 57 56 57 58 58 58 57 57 56 59 73 67 64 67 68 71 72 75 82 83 82 87 82 82 78 69 76 69 65 71 74 73 71 69 66 68 76 71
57 57 58 58 58 58 58 58 58 57 57 56 57 57 58 58 56 56 60 67 69 66 59 73 73 73 77 79 71 79 86 74 73 68 73 71 64 74 74 73 70 69 67 67 71 74 71
56 56 57 57 57 58 58 58 57 57 56 56 56 57 57 57 56 58 65 70 76 73 59 67 74 73 74 77 69 75 80 77 72 68 71 66 71 74 70 69 67 68 66 64 65 71 74
55 55 56 56 56 56 57 57 57 57 56 56 55 56 56 56 53 67 65 75 75 71 54 62 65 71 76 75 67 82 83 79 74 68 71 69 76 70 69 68 70 63 73 68 67 65 58
55 55 55 55 55 55 55 56 56 56 56 56 55 55 55 54 57 64 71 75 74 67 39 67 70 80 76 69 75 74 86 78 69 70 71 66 69 67 66 69 72 66 71 69 68 65 65
55 55 55 55 55 55 55 55 55 55 55 55 55 55 55 56 59 63 72 71 67 50 40 62 68 64 64 67 73 79 76 80 80 72 73 71 79 75 73 74 73 74 68 68 68 65 53
55 55 55 55 55 55 55 55 55 55 55 55 55 55 55 63 57 69 63 59 49 42 64 60 62 65 64 64 67 72 67 65 64 58 60 67 69 74 75 67 72 70 64 52 50 50 49
54 54 54 55 55 55 55 55 54 54 54 55 54 54 54 62 67 60 54 47 41 55 57 66 65 65 60 66 65 67 66 62 69 69 64 58 55 68 74 69 66 66 65 54 37 46 52
54 54 54 54 55 54 54 54 54 54 54 54 54 57 55 56 64 58 44 37 47 56 65 62 64 58 59 65 65 65 64 64 67 71 61 59 60 74 74 74 73 66 60 70 54 58 52
54 54 54 54 54 54 54 54 54 54 54 53 51 53 54 55 62 54 39 39 53 65 67 65 56 62 57 61 61 63 62 69 67 73 76 67 57 70 71 74 74 69 73 57 59 44 42
54 54 54 54 54 54 54 54 54 54 53 53 48 41 58 57 54 43 34 44 54 66 69 63 60 60 62 61 62 61 62 68 72 72 75 71 64 62 68 63 64 65 62 64 63 57 46
53 53 53 54 54 53 53 53 53 53 53 50 44 35 56 56 37 41 37 49 55 62 66 65 66 64 63 63 61 61 60 65 72 74 65 71 65 55 60 71 74 70 66 65 53 53 56
53 53 52 53 53 53 53 53 53 53 53 47 39 42 53 55 32 39 46 49 56 57 60 62 61 64 67 62 56 62 63 69 70 71 67 69 61 52 56 63 69 65 68 69 66 63 54
52 52 52 53 53 53 53 52 53 53 52 47 40 33 40 43 51 47 45 46 49 57 59 64 63 65 62 60 64 60 61 66 68 69 59 65 64 58 51 58 65 59 64 67 64 53 54
50 51 51 52 52 53 53 53 53 52 52 47 40 38 42 33 40 47 50 50 49 49 58 61 60 61 60 55 58 58 62 62 62 60 65 66 57 61 64 67 67 65 64 65 63 63 56
51 51 51 51 51 52 52 52 52 52 51 44 35 46 48 48 45 47 48 47 50 53 56 54 55 60 62 58 60 56 60 59 58 64 62 68 57 61 58 65 66 62 66 67 67 66 65
50 50 50 50 51 51 51 51 52 51 50 42 43 56 50 47 44 45 47 49 50 56 59 62 60 58 57 62 64 62 63 61 61 60 59 62 58 55 50 61 61 51 60 65 67 69 67
50 50 50 50 50 51 51 51 51 51 50 44 46 57 47 42 43 47 50 52 52 55 54 61 62 59 64 71 67 65 62 59 61 62 64 60 57 56 49 46 39 60 71 71 66 69 72
49 49 50 50 50 50 51 51 51 51 51 46 55 55 49 39 49 48 51 52 54 57 54 59 64 67 69 63 54 50 48 50 54 58 59 63 58 51 45 47 55 62 66 65 64 64 74
49 50 50 50 49 49 50 50 51 51 50 47 56 61 51 45 45 54 50 53 49 51 51 56 65 69 64 56 51 43 43 49 47 48 59 61 60 52 49 43 39 58 69 75 74 55 74
49 50 50 49 49 49 49 50 51 51 50 48 49 59 51 47 53 54 49 51 56 55 51 53 59 58 63 49 41 44 46 58 47 42 42 44 46 44 47 46 54 68 72 76 53 57 75
49 49 49 49 49 49 49 50 50 50 49 48 46 58 55 49 51 55 57 50 55 57 49 55 54 54 52 45 45 48 47 53 53 56 50 46 45 43 48 45 41 67 67 60 67 74 75
48 48 48 49 49 49 49 49 50 50 49 50 45 57 58 48 42 54 57 58 59 62 59 57 54 55 58 52 52 52 47 49 52 43 61 46 54 51 55 55 67 67 69 73 77 76 75

GFSGBSN_sfc_temp_051.txt.gz
Temp
60 60 60 60 60 60 60 60 59 59 60 60 60 60 60 60 60 59 58 57 58 58 58 59 60 60 57 58 64 73 68 68 71 74 71 70 68 67 62 66 67 63 68 72 73 72 65
59 60 60 60 59 59 60 60 59 58 58 58 59 60 60 60 59 59 58 57 57 57 58 59 60 58 55 51 77 77 73 71 74 71 71 72 71 74 68 67 63 69 69 69 72 68 66
59 59 59 59 59 59 59 58 58 58 58 58 58 58 60 60 59 58 58 57 57 57 57 58 59 59 54 56 75 74 78 74 74 74 70 76 77 69 68 63 72 70 62 66 68 68 59
59 59 59 59 58 58 58 58 58 58 58 58 58 58 57 59 58 58 57 56 56 57 57 58 58 56 48 73 74 74 76 76 79 79 78 80 78 70 65 69 67 62 61 52 65 67 63
59 58 59 58 58 58 58 57 57 58 58 58 57 57 57 57 57 57 56 56 56 57 58 58 53 52 51 74 69 75 76 76 78 79 78 85 73 64 65 56 52 55 49 53 61 64 61
59 59 59 58 58 58 58 58 57 57 57 57 57 57 57 56 56 56 56 56 58 58 60 63 62 51 61 65 75 77 77 78 75 73 71 69 62 56 54 50 43 49 52 55 55 62 62
58 58 58 58 58 58 58 58 58 57 57 57 57 57 56 56 56 56 54 53 54 50 55 54 57 57 66 74 79 73 76 74 73 68 58 62 53 48 53 58 61 60 58 55 60 65 61
57 57 57 57 57 58 58 58 57 57 57 57 56 56 56 56 56 56 51 47 56 57 49 63 63 64 68 72 65 72 76 65 63 58 62 57 52 61 65 65 64 62 56 55 64 69 60
56 56 56 57 57 57 57 57 57 56 56 56 56 56 56 55 56 52 50 53 62 60 48 56 63 63 65 70 63 65 71 67 60 59 59 54 59 67 65 62 61 59 56 55 57 62 62
55 55 55 56 56 56 56 56 56 56 56 56 55 55 55 55 49 51 50 62 62 61 39 50 60 64 68 69 60 73 74 68 62 58 60 58 66 64 64 62 62 53 64 63 61 54 45
55 55 55 55 55 55 55 55 55 56 56 56 55 55 54 55 48 48 59 60 62 58 24 58 63 77 71 62 65 64 74 67 59 60 59 56 61 61 60 62 65 58 65 62 59 53 49
54 54 54 55 55 54 54 54 55 55 55 55 55 55 54 51 49 53 59 59 54 39 29 54 64 62 61 62 63 67 65 70 69 61 62 61 68 66 64 68 67 67 62 60 56 51 38
53 54 54 54 54 54 54 54 54 54 54 54 55 55 53 56 46 57 58 51 37 29 56 54 56 61 59 57 59 61 59 56 53 48 49 58 61 68 69 60 64 61 52 39 35 34 34
53 53 53 54 54 54 54 54 54 54 54 54 54 54 53 54 54 55 51 42 30 45 46 61 60 60 54 58 58 59 56 52 58 57 50 47 44 61 68 63 57 56 53 38 31 29 38
53 53 53 53 54 54 54 54 54 54 54 54 53 50 48 51 53 52 43 32 34 44 54 53 56 52 53 58 57 56 54 53 58 60 50 48 50 65 68 69 64 55 49 57 45 43 37
53 53 53 53 53 53 54 54 54 54 54 54 47 46 46 55 52 47 38 34 41 53 56 55 45 52 47 53 54 53 52 59 58 64 65 55 47 62 66 69 66 61 62 47 46 33 31
52 52 53 53 53 53 53 54 54 54 54 54 46 40 49 54 48 40 31 35 43 51 52 50 48 47 49 49 54 54 54 60 62 63 65 61 53 52 60 59 58 55 54 54 51 44 34
51 52 52 52 52 53 53 53 53 53 53 51 44 34 49 53 36 38 33 39 46 48 52 49 52 51 48 49 48 49 53 57 66 65 58 62 53 44 52 64 69 62 56 55 40 42 41
51 51 51 52 52 52 52 53 53 53 53 47 40 39 49 50 31 33 39 40 43 44 47 49 47 52 53 49 43 51 53 62 62 63 59 60 48 41 45 54 63 59 60 60 55 49 39
51 51 51 51 52 52 52 52 53 53 53 48 38 32 40 42 43 38 36 36 37 47 45 48 48 50 47 48 52 48 53 59 60 62 56 61 52 46 40 47 56 51 56 59 54 39 42
50 50 51 51 51 51 52 52 52 53 53 48 38 35 40 33 35 38 39 40 37 37 48 49 45 45 45 43 47 47 52 53 55 58 59 58 46 52 53 57 59 58 57 58 55 53 44
50 50 50 50 51 51 51 51 52 52 53 45 33 37 42 39 42 37 38 36 37 42 44 43 42 46 47 44 48 45 46 47 45 54 54 56 45 50 48 55 56 55 59 57 56 57 56
50 50 50 51 50 51 52 51 52 52 51 45 43 42 44 40 38 35 35 37 40 44 46 50 48 45 43 48 54 52 50 52 51 47 46 50 45 43 38 51 51 41 49 57 57 60 58
50 50 50 51 51 51 51 50 51 51 51 47 43 45 38 34 37 36 40 41 41 45 42 49 51 47 51 57 53 52 52 50 50 51 52 44 46 41 35 41 33 51 62 62 59 61 61
49 50 50 50 50 50 51 50 50 50 51 46 44 44 41 33 40 40 40 41 44 46 45 47 52 56 56 51 42 38 36 41 43 51 51 49 43 36 36 38 44 52 58 57 55 54 61
49 49 50 50 50 49 50 50 50 51 52 48 43 45 42 36 37 47 42 43 39 40 42 46 55 55 51 47 39 31 27 38 36 43 53 49 48 39 33 33 32 45 58 64 62 45 61
49 49 49 49 49 49 49 50 50 51 51 47 44 44 40 35 45 48 42 41 47 44 41 45 47 46 50 36 35 31 32 44 35 32 36 39 36 35 29 29 38 54 62 64 44 45 62
49 49 49 49 49 49 49 49 50 50 51 47 43 45 40 34 43 49 50 43 47 47 39 44 44 44 38 35 34 32 30 41 40 44 36 37 35 32 35 32 31 53 57 51 53 61 63
49 49 49 49 49 49 49 49 49 50 50 49 42 45 46 38 42 48 52 53 50 51 46 45 44 47 42 36 36 36 31 36 38 31 49 37 41 37 41 38 52 53 53 58 62 61 59

GFSGBSN_sfc_temp_054.txt.gz
Temp
60 60 60 60 60 60 60 60 59 58 58 58 58 60 60 60 60 59 58 58 58 58 58 58 59 60 55 54 58 72 68 68 69 71 68 67 63 61 56 60 62 60 63 67 68 63 59
59 59 59 59 59 59 60 59 59 58 58 58 58 58 58 60 60 59 58 58 57 57 57 58 59 58 52 46 71 75 70 68 70 67 67 67 66 67 63 61 58 63 64 64 65 61 63
59 59 59 59 59 58 58 58 58 58 58 58 58 58 58 58 59 59 58 58 57 57 57 58 58 58 53 51 67 68 73 69 70 70 66 70 70 64 64 61 65 65 58 61 62 60 58
59 59 59 58 58 58 58 57 57 58 58 58 58 57 57 57 57 57 57 57 57 57 58 58 58 56 48 67 65 66 67 66 72 72 72 72 73 68 63 64 62 58 55 48 59 60 60
59 59 59 58 58 58 57 57 57 58 58 57 57 57 56 56 56 56 56 56 56 58 58 58 55 51 47 68 63 68 70 69 72 72 71 79 70 63 61 53 48 50 45 49 55 62 59
58 58 58 58 58 58 58 57 57 57 57 57 57 56 56 56 55 55 55 56 57 56 57 61 60 48 56 61 70 73 69 72 69 68 66 65 60 54 51 47 38 44 45 44 49 58 56
57 57 58 58 57 58 58 58 58 57 57 57 57 56 56 56 55 55 53 51 50 49 52 51 53 53 62 70 73 69 71 69 67 62 54 58 53 46 50 52 54 54 52 50 56 63 58
56 56 57 57 57 57 58 58 57 56 56 56 56 56 56 56 55 55 51 46 49 49 42 58 59 59 64 67 60 66 70 62 60 53 57 54 51 57 59 58 56 55 52 52 58 63 61
55 55 56 56 56 57 57 57 56 56 56 56 56 56 55 55 55 51 49 51 59 54 42 53 60 59 61 63 56 60 65 62 56 53 54 51 56 62 59 57 55 55 52 52 54 60 57
55 55 55 56 56 56 56 56 56 56 56 55 55 55 54 54 49 49 48 58 58 56 37 45 54 58 62 63 54 68 68 63 57 54 55 54 63 60 57 56 57 50 60 58 57 51 44
55 54 54 54 55 55 55 55 55 55 55 55 54 55 54 55 47 45 54 58 60 51 23 55 58 70 64 59 61 60 70 62 55 55 56 52 56 56 54 57 61 55 61 58 57 49 45
54 54 54 54 54 54 54 54 54 54 54 55 54 54 54 50 47 49 55 57 53 38 26 48 61 57 55 57 58 61 60 65 62 56 56 57 63 60 59 63 62 65 58 55 51 47 37
53 53 53 54 54 54 54 54 54 54 54 54 54 54 53 54 43 51 56 49 35 27 51 49 54 58 56 53 55 56 54 52 48 43 45 55 56 62 64 57 60 58 49 37 35 33 34
53 53 53 53 53 53 54 54 54 54 54 54 54 53 53 52 50 50 49 40 29 40 43 54 55 56 53 55 55 56 52 47 53 51 45 44 41 56 62 58 54 53 51 37 32 29 36
53 53 53 53 53 53 53 53 53 53 53 54 53 49 48 48 50 48 40 31 34 40 50 48 52 48 49 55 55 54 50 49 53 55 44 42 45 61 63 64 60 54 48 54 42 40 35
53 53 52 53 52 52 52 52 53 53 53 54 48 46 46 50 50 44 35 33 41 49 50 49 41 46 41 46 49 49 49 55 54 58 59 51 43 57 62 62 61 58 60 44 42 33 30
52 52 52 52 52 52 52 52 52 53 53 53 46 40 49 50 49 39 29 35 42 49 49 44 44 45 45 44 46 46 50 56 58 58 60 56 48 49 56 53 52 52 50 51 49 42 33
51 51 51 51 51 52 52 52 52 53 53 50 44 35 46 52 35 35 32 40 45 46 50 47 47 45 45 46 44 45 47 53 61 62 53 56 50 43 49 58 61 55 54 52 40 39 39
51 50 51 51 51 51 52 52 52 52 53 47 40 39 47 47 30 31 37 39 43 43 44 43 44 47 49 43 38 45 48 56 57 57 53 56 46 36 44 52 56 52 56 57 51 45 39
50 50 50 51 51 51 51 52 52 52 53 48 37 32 39 41 40 36 35 36 36 45 43 44 43 45 44 41 45 42 45 53 55 54 51 52 49 47 40 44 50 48 54 57 52 36 40
50 50 50 50 50 51 51 51 52 52 52 47 37 34 39 32 34 36 37 39 36 36 43 45 41 41 40 36 41 41 47 49 54 52 52 51 45 49 52 55 55 54 53 54 51 49 44
49 49 49 49 50 50 50 51 51 52 52 44 33 36 40 37 40 36 37 35 35 39 41 39 38 43 43 38 40 39 44 46 46 51 48 49 41 46 44 53 54 50 54 55 54 54 53
49 49 49 49 50 50 51 51 50 51 50 43 44 43 43 39 38 35 34 35 38 40 42 45 44 42 40 43 47 48 49 49 49 49 44 43 40 37 39 49 50 40 48 51 54 54 54
49 49 50 50 50 50 51 51 51 51 50 46 45 43 37 33 35 35 39 40 39 41 38 46 46 42 47 53 50 48 47 47 48 47 49 43 40 38 33 38 32 49 60 57 54 58 58
49 49 50 50 50 51 51 51 50 50 51 47 46 43 38 33 37 38 39 40 42 42 41 43 46 50 52 47 38 36 33 38 42 47 45 47 41 33 30 35 42 49 53 53 51 50 59
49 49 49 49 49 50 50 50 50 51 51 47 47 46 43 37 36 43 39 41 36 36 38 42 50 50 48 40 33 29 25 34 35 39 48 46 46 36 34 30 31 44 55 59 58 40 58
49 49 49 49 49 49 49 49 50 50 51 47 44 47 39 34 39 44 39 38 43 40 35 40 42 43 47 32 26 27 30 40 32 30 33 35 35 33 32 29 35 48 54 61 43 44 57
48 48 48 49 49 49 49 49 49 50 50 46 43 46 40 34 37 44 49 42 43 43 36 40 39 39 35 31 29 29 26 35 35 39 34 34 33 32 33 31 29 51 55 48 49 52 57
48 49 48 48 48 49 49 49 49 50 50 49 41 45 47 40 38 44 46 51 53 53 46 41 41 42 42 34 32 32 28 27 34 30 42 35 39 36 37 36 50 51 53 53 56 54 55

GFSGBSN_sfc_temp_057.txt.gz
Temp
60 60 59 59 59 59 59 60 59 58 58 58 58 58 58 59 59 59 58 58 58 58 58 58 58 59 56 50 54 67 68 67 67 68 66 65 62 60 54 57 58 56 59 62 64 59 57
59 59 59 59 59 59 59 59 58 58 57 57 57 57 58 58 58 58 58 58 57 57 57 58 58 58 53 44 67 69 67 65 67 64 64 65 63 64 60 58 56 60 61 61 61 58 59
59 59 59 58 58 58 58 58 58 57 57 57 57 57 57 57 57 57 57 57 57 57 57 58 58 57 52 49 62 63 66 64 65 66 63 66 66 60 60 58 63 61 55 58 56 57 57
58 59 59 58 58 57 57 57 57 57 57 57 57 57 56 56 56 56 56 56 56 56 57 58 58 55 47 64 60 62 61 62 67 68 68 69 68 63 60 62 60 55 51 46 55 58 59
59 59 58 58 58 57 57 57 57 57 57 57 57 56 56 56 55 55 55 55 56 57 58 58 54 52 46 64 60 65 65 64 67 68 67 74 66 60 58 51 46 46 42 45 52 59 55
58 58 58 58 57 57 57 57 57 57 57 56 56 56 56 56 55 55 54 55 57 55 56 58 59 47 54 58 66 69 64 67 65 65 62 62 58 52 48 46 37 41 43 40 46 52 52
57 57 57 57 57 57 57 57 57 56 56 56 56 56 56 56 55 55 53 51 48 47 49 49 52 52 58 66 69 65 68 64 65 60 51 56 49 46 52 51 51 50 47 45 51 58 55
56 56 56 56 56 57 57 57 57 56 56 56 56 56 56 55 55 54 51 45 48 51 41 53 53 55 61 63 55 62 68 59 57 50 54 51 47 56 56 55 52 50 47 47 53 59 55
55 55 55 56 56 56 57 56 56 55 56 56 55 55 55 55 54 51 46 49 59 57 41 48 54 54 58 59 53 56 62 59 54 50 51 47 53 60 56 52 50 50 47 48 49 55 52
55 54 54 55 56 56 55 56 55 55 55 55 55 55 54 54 49 49 46 56 57 57 35 43 49 55 60 59 51 65 66 61 55 52 51 50 59 56 53 52 52 45 55 54 52 48 42
54 54 54 55 54 54 54 54 55 55 55 55 54 54 54 54 46 45 53 56 56 51 21 52 54 65 60 55 57 58 65 59 52 52 53 49 52 53 52 54 56 50 56 54 52 47 43
54 54 54 54 54 53 54 54 54 54 54 54 54 54 54 50 47 47 51 54 51 36 25 46 57 52 51 53 55 58 56 62 60 53 52 55 57 56 55 59 58 60 54 51 47 44 35
53 53 53 53 53 53 54 54 54 54 54 54 54 54 53 52 42 49 50 47 36 27 48 46 51 53 52 49 52 55 50 50 47 41 41 51 51 56 59 53 56 53 46 35 34 32 33
53 53 53 53 53 53 53 53 53 53 54 54 53 53 52 51 49 49 45 38 29 38 39 51 52 54 49 51 52 53 49 45 50 48 42 41 37 52 58 55 52 51 48 35 31 29 35
52 53 53 53 53 53 53 53 53 53 53 53 53 49 47 47 49 47 37 29 34 39 46 43 49 44 47 53 51 50 47 47 53 51 44 40 42 57 58 60 58 50 44 52 39 37 33
52 52 53 52 52 52 52 52 53 53 53 53 47 46 47 48 50 45 33 31 37 48 46 46 39 44 40 44 46 45 46 52 52 57 55 47 40 55 58 58 58 55 56 42 40 31 29
52 52 52 52 51 51 52 52 52 52 52 52 45 40 49 51 48 39 28 33 40 47 47 41 40 40 41 42 45 45 47 52 56 55 56 53 45 46 54 49 49 49 47 47 47 39 32
51 51 51 51 51 51 52 52 52 52 52 49 44 35 47 51 35 36 31 37 45 44 48 45 45 44 41 42 41 44 46 49 56 55 50 52 45 41 47 56 57 54 50 49 38 37 36
50 50 50 50 51 51 51 51 51 52 52 46 39 38 46 47 30 31 37 37 41 42 42 42 42 44 47 41 38 41 45 52 55 53 49 51 43 38 42 47 52 49 51 52 48 42 36
49 50 50 50 51 50 50 51 51 52 52 46 36 32 38 40 38 37 33 34 35 44 42 43 41 43 42 39 43 40 42 50 53 53 51 50 45 42 37 43 49 46 51 53 49 37 38
49 49 50 50 50 51 51 51 51 51 52 45 36 33 39 32 33 37 38 38 33 35 42 43 39 40 38 33 37 37 44 47 51 53 52 47 38 42 47 51 53 52 50 50 47 48 43
49 49 50 50 50 50 50 50 50 51 51 43 32 35 39 34 39 36 37 35 35 37 39 37 36 39 40 36 38 35 41 43 43 48 47 49 37 38 39 49 50 48 52 53 52 50 48
49 49 49 49 49 50 50 50 49 50 50 42 43 42 41 37 35 34 34 36 37 40 41 43 41 38 36 40 44 45 45 45 46 45 43 42 38 36 32 41 45 38 46 51 51 52 51
49 49 49 49 49 50 50 50 49 49 49 45 44 42 36 33 35 35 39 39 38 40 37 42 43 39 44 49 47 46 44 45 45 45 48 40 39 37 32 35 28 45 55 57 52 54 55
48 49 49 49 49 50 50 49 49 49 49 45 45 43 39 33 36 38 39 38 40 42 40 40 44 47 47 43 36 34 30 35 38 43 44 45 40 33 32 31 36 47 50 49 49 51 56
49 49 49 49 49 49 50 50 49 49 50 46 44 47 42 36 35 42 39 40 34 35 38 39 47 48 44 36 32 28 24 32 33 36 45 42 40 35 32 28 28 39 51 58 56 43 55
49 49 49 49 49 49 49 50 50 50 50 47 45 47 42 35 42 43 38 36 42 37 34 38 40 39 44 30 25 25 27 37 29 29 31 36 34 33 33 31 33 45 51 54 38 43 53
48 48 48 49 49 49 49 49 49 50 50 46 43 47 43 36 39 44 46 41 41 41 32 38 38 37 32 29 27 28 23 32 33 36 34 31 31 32 33 30 28 48 47 40 47 52 53
48 48 48 48 48 49 49 49 49 49 50 49 40 46 47 40 39 44 45 47 50 50 44 40 40 40 38 32 30 30 25 24 31 26 39 32 35 31 34 35 46 49 48 51 50 51 54

GFSGBSN_sfc_temp_060.txt.gz
Temp
59 59 59 59 59 59 59 59 59 58 57 57 57 58 58 58 59 58 57 57 57 58 58 58 59 58 55 47 52 64 68 66 64 67 64 63 59 57 53 54 55 52 57 59 62 59 55
60 59 59 59 58 59 59 58 58 57 57 57 57 57 57 58 58 57 57 57 56 57 57 57 58 58 49 42 63 64 64 61 64 63 63 64 61 61 56 56 54 58 58 58 59 58 56
59 58 58 58 58 58 58 57 57 57 57 57 57 57 57 57 57 57 56 56 56 56 57 57 58 55 48 49 59 61 62 60 63 63 62 64 64 58 57 54 60 58 52 55 56 53 54
58 59 59 58 58 57 57 57 57 57 57 57 57 57 56 56 56 56 56 55 55 56 57 57 58 52 44 63 57 59 57 60 64 64 64 66 65 60 58 60 57 51 49 43 53 54 54
58 58 58 58 58 57 57 57 57 57 57 57 57 56 56 55 55 55 55 55 56 57 57 57 52 51 44 64 58 62 62 60 63 64 63 72 63 57 55 50 46 45 39 42 50 55 52
58 58 57 57 57 57 57 57 57 57 56 56 56 56 56 55 55 54 54 54 57 56 57 57 58 46 54 58 64 65 60 63 61 61 59 57 54 49 47 45 39 40 40 38 43 50 49
57 58 57 57 57 57 57 57 57 56 56 56 56 56 56 55 55 54 52 49 48 47 49 46 48 49 57 64 67 61 63 60 59 56 49 52 46 43 50 49 49 48 44 42 47 53 50
56 56 56 56 56 56 56 57 56 55 55 55 55 55 55 55 55 54 49 44 47 49 40 50 50 50 56 60 51 59 64 56 53 48 52 48 45 53 56 53 51 48 43 44 50 55 52
55 55 55 56 56 56 56 56 55 55 55 55 55 55 55 54 54 49 45 47 57 55 40 46 51 51 56 57 51 55 60 57 51 48 50 47 50 57 54 49 48 46 44 44 46 50 50
54 54 54 55 55 56 56 55 55 55 55 54 54 54 54 53 48 46 44 55 56 54 34 39 45 51 57 56 48 64 64 59 52 49 49 48 55 53 50 49 50 43 52 51 49 44 38
54 54 54 55 55 54 54 54 54 54 55 54 54 54 53 54 44 43 50 54 55 49 21 49 51 62 59 53 55 56 64 57 50 50 50 47 48 50 48 50 53 50 53 50 49 43 40
54 53 54 54 54 53 53 53 53 54 54 54 54 54 53 50 47 48 50 50 49 34 25 43 53 50 49 52 54 56 55 57 57 51 49 51 53 53 54 56 55 58 52 48 44 42 33
53 53 53 53 53 53 53 53 53 53 53 53 54 54 51 51 45 47 48 45 32 27 45 44 46 50 48 46 49 52 49 47 46 40 40 48 49 52 56 50 52 51 44 34 32 31 32
53 52 52 53 53 53 53 53 52 52 53 53 53 52 50 51 52 48 44 35 26 37 39 49 49 48 44 49 48 50 46 42 49 46 42 41 36 49 54 52 47 47 47 34 30 29 34
53 53 53 52 52 53 52 52 52 52 52 53 52 45 47 49 50 48 39 26 31 38 44 41 45 43 44 50 48 50 45 44 50 51 43 39 40 53 54 56 56 47 41 50 37 34 32
53 53 52 52 52 52 52 52 52 52 52 52 41 42 46 50 52 45 34 29 36 45 44 44 37 42 38 42 44 44 45 50 50 55 53 46 39 53 55 56 53 52 53 40 37 30 28
52 52 52 52 52 51 51 51 52 52 52 52 43 38 47 52 48 38 29 29 37 45 46 41 39 38 40 39 42 43 45 49 52 52 53 48 43 45 52 46 46 47 44 44 44 37 32
51 51 51 51 51 51 51 51 51 52 51 48 41 33 47 49 35 34 31 34 43 41 46 43 43 41 40 41 40 41 43 47 52 52 47 50 44 38 46 53 54 49 46 48 37 35 35
50 50 50 51 50 50 50 51 51 51 51 44 37 38 46 47 30 31 35 35 39 40 41 41 39 41 43 39 37 42 43 50 51 51 47 51 41 33 38 45 48 45 48 49 45 40 35
50 50 50 50 50 50 50 50 51 50 51 45 36 30 37 40 39 35 33 33 34 42 40 41 40 41 40 37 42 39 41 48 50 51 50 50 45 38 34 40 47 42 47 50 47 35 35
49 49 50 49 50 50 50 51 51 50 51 44 37 32 38 31 33 37 37 36 34 34 40 42 37 38 37 33 35 35 42 42 48 52 50 46 38 40 43 46 47 48 48 47 44 43 39
49 49 49 49 49 50 50 50 50 50 50 41 32 34 38 35 39 35 36 33 35 37 38 35 35 38 38 33 36 34 38 39 40 45 44 47 36 37 38 44 44 41 47 48 47 46 45
48 48 48 49 49 50 50 50 49 50 49 40 41 41 39 36 35 32 33 36 35 40 39 41 39 37 34 38 42 44 43 43 43 41 39 39 36 33 31 39 39 33 41 46 49 51 48
48 48 49 49 49 49 49 49 48 49 49 44 43 41 36 32 34 34 38 39 38 39 37 43 42 37 43 46 45 43 41 42 42 41 44 39 36 34 30 35 26 42 51 50 47 50 51
48 48 49 49 49 49 49 49 49 49 49 44 45 41 37 31 36 36 38 37 40 42 40 40 43 47 46 41 35 33 30 33 36 41 41 44 37 32 28 29 35 42 47 45 42 44 52
48 48 48 48 48 48 48 49 49 49 49 46 44 46 41 34 34 41 38 39 35 35 36 39 48 46 44 36 33 27 23 31 31 35 41 39 39 34 32 26 25 37 47 51 49 39 50
48 48 48 49 49 49 49 48 49 49 49 46 44 46 42 35 41 42 37 36 41 37 34 38 40 37 41 31 29 28 27 35 28 28 34 34 33 33 32 31 32 43 47 50 35 38 45
48 48 48 48 48 49 49 49 48 49 49 46 43 46 41 34 39 45 46 41 41 41 33 38 37 35 30 27 28 31 25 31 30 34 34 33 31 27 31 28 25 46 45 42 45 46 48
48 48 48 48 48 48 49 49 49 49 48 48 38 46 46 40 39 46 48 49 50 49 44 42 38 36 36 30 28 29 25 23 30 26 36 30 34 31 33 33 43 44 47 49 48 48 49

GFSGBSN_sfc_temp_063.txt.gz
Temp
60 60 59 59 59 59 59 59 58 58 57 57 57 57 58 58 58 58 57 57 57 57 57 58 58 58 55 50 55 68 67 67 67 69 69 67 65 63 60 62 62 59 64 65 67 66 64
58 59 59 59 59 58 58 58 58 57 57 57 57 57 57 57 58 57 57 57 56 56 57 58 58 58 52 44 68 66 65 66 67 68 68 68 67 67 64 63 62 64 64 66 66 66 65
59 58 58 58 58 58 58 57 57 57 57 57 57 57 57 57 57 57 56 56 56 56 57 57 58 57 47 49 66 65 63 66 68 68 66 69 70 66 66 61 66 64 60 63 65 65 63
58 58 58 58 58 57 58 57 57 57 57 57 57 57 56 56 56 56 55 55 55 56 57 57 58 54 44 63 63 61 62 63 67 68 66 71 71 67 65 66 62 60 58 54 62 60 60
58 58 58 58 57 57 57 57 57 57 57 57 56 56 56 55 55 55 55 55 55 57 57 57 53 50 45 65 59 65 64 62 65 67 68 72 68 63 63 58 55 53 51 51 57 62 60
57 57 58 57 57 57 57 57 57 56 56 56 56 56 55 55 55 54 54 54 56 56 57 58 57 50 54 57 65 66 63 65 64 63 63 62 61 57 55 56 46 49 49 51 53 58 58
56 57 57 56 56 56 56 57 57 56 56 55 55 55 55 55 55 54 52 49 49 48 50 47 49 51 54 61 67 65 64 62 64 60 53 57 53 49 54 56 56 54 52 51 56 60 58
56 56 56 56 57 56 56 56 56 56 55 55 55 55 55 55 54 54 50 46 48 48 38 51 50 50 56 59 49 59 66 58 56 52 55 52 48 57 57 57 56 55 52 52 57 58 58
55 55 55 56 56 56 56 56 56 55 55 55 54 55 54 54 54 50 47 47 57 54 39 46 52 50 52 55 49 53 62 59 55 50 52 51 55 58 56 53 52 52 51 51 52 55 58
54 55 55 55 56 55 56 56 55 54 54 54 54 54 53 53 48 47 45 54 55 53 35 40 45 50 56 56 48 61 65 60 55 51 52 53 58 54 54 52 55 48 55 55 52 51 48
54 54 54 55 55 55 54 54 54 54 54 54 54 54 53 54 48 45 50 53 54 48 23 49 50 63 59 53 56 55 65 60 53 52 53 50 51 52 51 54 56 54 57 55 54 51 49
53 54 54 54 54 54 53 53 53 53 53 54 53 54 53 50 48 50 51 50 48 33 25 44 53 50 49 53 54 57 56 62 62 53 54 55 58 58 59 57 58 60 56 53 51 49 40
53 53 53 53 53 53 53 53 53 53 53 53 53 53 52 53 45 50 50 46 32 25 46 42 44 50 49 48 49 52 49 48 48 42 43 51 53 58 59 54 56 57 53 42 39 38 40
53 53 53 53 53 53 53 53 52 52 52 53 53 52 50 50 51 51 47 36 24 38 39 49 47 47 44 50 49 50 47 44 52 51 47 43 40 53 58 55 52 52 53 43 35 36 42
52 53 52 53 53 53 53 53 52 52 52 52 51 45 45 48 51 48 39 26 31 37 43 41 44 42 43 48 48 49 46 46 51 52 45 43 44 56 56 58 59 51 47 56 43 41 41
52 52 52 52 52 52 52 52 52 52 52 52 42 41 42 49 49 45 34 31 35 44 44 43 36 41 37 41 42 46 45 49 49 55 56 49 42 54 57 60 58 57 58 46 45 37 34
51 51 51 51 51 51 52 51 51 51 52 51 41 37 46 49 48 39 29 32 37 45 45 40 38 37 39 39 42 42 44 49 50 51 56 52 49 48 54 51 50 52 50 50 51 45 40
50 51 51 51 51 50 51 51 51 51 51 47 40 31 46 48 34 35 31 35 42 42 46 44 44 41 40 41 40 41 41 46 51 52 48 53 47 40 47 55 58 57 53 53 44 40 42
50 49 50 50 50 50 50 51 51 51 50 42 36 37 46 45 29 30 35 35 39 40 42 41 40 41 44 40 37 41 43 50 51 51 48 50 44 38 42 50 53 51 54 53 49 46 44
50 50 50 50 50 50 50 51 50 50 51 44 36 30 37 39 39 34 33 33 33 41 40 42 40 43 41 38 43 40 41 48 49 51 49 51 46 41 37 42 47 45 49 53 52 41 44
49 49 49 50 50 50 50 50 50 50 50 43 36 31 36 29 31 33 36 36 33 34 41 42 38 39 39 35 37 38 44 44 49 49 51 49 39 43 44 46 46 46 47 50 48 50 45
49 49 49 49 49 49 50 50 50 50 50 40 32 34 37 35 37 33 34 34 34 37 39 36 36 39 40 36 38 37 40 41 41 46 44 47 40 41 40 46 47 44 48 49 50 50 50
49 49 49 49 49 49 49 49 49 50 49 39 40 41 38 36 34 32 33 36 36 40 41 44 41 39 36 39 44 44 45 45 44 41 40 41 40 38 36 40 42 39 44 47 50 52 51
48 48 48 49 49 49 49 49 49 50 49 42 41 40 34 30 34 34 37 38 38 40 37 42 44 39 44 49 48 46 42 42 42 42 45 39 39 36 35 36 29 46 51 51 49 51 53
47 47 48 48 48 49 49 49 49 49 49 43 43 40 36 30 35 35 37 38 41 42 39 40 43 45 49 45 37 34 35 36 37 41 41 43 40 34 32 34 39 47 49 48 46 48 49
47 48 48 48 48 48 48 48 48 48 49 44 43 45 40 34 33 40 36 40 36 34 35 39 46 49 47 36 33 28 27 33 34 38 43 41 42 37 33 30 28 43 50 53 51 42 50
49 49 49 48 48 47 48 48 48 48 48 45 43 46 40 33 40 41 37 37 42 39 35 38 40 39 45 33 30 30 30 37 31 31 34 34 35 32 32 32 38 47 51 52 40 43 53
48 49 48 48 48 48 48 48 48 48 48 46 42 46 41 34 39 45 46 41 42 41 35 39 37 36 34 31 31 32 31 35 35 39 38 35 33 33 35 31 29 49 50 44 49 53 52
47 48 48 48 48 48 48 49 49 48 48 48 41 46 46 39 38 45 47 51 51 50 44 42 41 38 38 35 34 36 32 32 36 32 40 35 40 38 39 39 47 50 49 50 50 49 50

GFSGBSN_sfc_temp_066.txt.gz
Temp
59 59 59 59 59 59 59 59 58 58 58 57 57 57 58 58 58 58 57 57 57 57 57 58 58 59 63 63 67 82 69 71 76 77 77 76 73 73 69 73 74 68 74 77 78 78 76
59 59 59 59 59 59 59 59 58 57 57 57 57 57 57 57 57 57 57 56 56 56 57 57 58 58 60 53 76 77 75 76 78 77 77 79 76 78 73 73 71 75 74 76 77 77 77
59 59 59 59 58 58 58 58 57 57 57 57 57 57 57 57 57 57 56 56 56 56 56 57 58 61 56 59 73 77 76 75 77 77 75 79 81 74 75 70 76 74 68 73 74 76 75
58 58 58 58 58 57 57 57 57 57 57 57 57 57 56 56 56 56 55 55 55 56 57 57 58 58 53 74 74 68 73 74 76 77 75 80 80 75 72 75 70 68 69 63 75 75 74
58 58 58 58 57 57 57 57 57 57 57 57 56 56 55 55 55 55 55 55 55 57 58 58 59 57 56 69 64 72 73 67 73 75 76 77 75 71 72 65 64 65 60 63 67 74 71
58 57 57 57 57 57 57 57 56 56 56 56 56 56 55 55 55 54 54 55 58 57 62 64 64 52 63 63 69 70 70 69 67 69 68 68 69 65 66 64 53 59 60 65 64 69 69
57 56 57 57 57 56 56 56 56 56 56 56 56 55 55 55 55 54 57 64 60 57 57 53 57 56 60 69 72 67 66 66 68 66 59 64 60 56 63 65 67 66 64 63 68 70 65
56 56 56 57 56 56 56 57 56 55 56 55 55 55 55 55 54 54 61 55 48 51 41 56 57 58 63 66 55 62 66 59 59 56 63 60 54 63 68 68 64 63 61 62 68 68 66
55 55 55 56 56 56 56 56 55 55 55 55 55 55 55 54 54 58 57 55 62 57 46 51 58 56 58 61 52 56 62 58 57 56 59 57 59 64 64 62 59 61 60 62 62 64 68
55 54 55 55 55 55 55 55 55 55 55 54 54 54 53 53 53 58 56 60 63 59 39 48 51 56 57 60 50 62 64 57 56 54 59 59 65 61 61 59 62 56 66 64 62 59 56
54 54 54 53 54 55 54 55 54 54 54 54 53 54 53 53 55 54 57 62 62 55 31 53 55 67 61 56 59 58 65 58 49 54 59 56 58 57 57 61 65 59 67 62 62 59 59
53 53 53 54 54 54 54 54 53 53 53 53 53 53 53 57 57 59 62 60 57 37 32 48 56 54 51 54 56 59 57 61 59 49 50 55 66 62 63 66 66 66 62 61 61 60 48
53 52 53 53 53 53 53 53 53 53 53 53 53 53 54 59 52 57 59 56 38 33 52 46 48 53 52 52 53 54 48 48 48 41 41 49 57 64 65 61 65 63 58 48 46 46 45
53 53 53 53 52 53 53 53 53 53 52 53 52 52 55 58 61 58 52 42 30 43 45 54 50 53 49 54 53 52 49 44 52 52 48 42 41 58 62 62 57 58 58 51 40 43 50
52 52 52 52 53 51 52 53 53 52 52 52 51 55 53 57 59 54 40 31 39 44 48 45 50 47 48 51 50 51 50 50 52 56 48 45 45 61 62 64 64 57 53 64 52 51 50
51 52 52 52 52 52 52 52 52 52 52 52 50 50 52 59 58 48 35 33 42 50 48 48 41 46 41 45 46 44 46 52 51 58 61 55 46 58 60 64 66 62 66 51 53 41 40
50 50 50 51 52 51 50 51 51 51 52 51 47 42 56 59 54 41 31 37 44 52 51 44 42 42 44 43 46 42 38 46 51 53 59 57 53 52 59 55 57 58 56 57 59 55 46
50 50 51 51 51 51 51 50 51 51 51 49 45 33 53 54 36 39 33 42 44 48 53 49 48 46 44 45 44 44 38 44 51 52 50 56 52 48 53 62 66 65 59 59 50 48 52
50 49 50 50 49 50 51 51 50 51 51 48 38 42 52 50 32 34 38 42 44 45 47 48 46 47 49 44 41 46 39 49 52 49 49 54 50 44 47 55 60 57 60 60 59 57 50
48 46 48 50 50 49 50 50 50 51 50 46 39 31 41 42 43 39 38 39 39 48 47 50 47 47 46 44 48 44 45 45 48 50 48 53 51 48 44 48 53 51 56 60 56 48 50
49 49 49 50 50 50 50 51 49 51 50 45 37 33 44 32 35 38 39 40 36 39 46 49 45 45 43 39 42 42 47 49 48 50 51 51 39 46 49 50 51 50 51 55 55 56 50
50 49 49 49 49 50 50 50 49 50 50 40 33 34 41 41 37 35 35 35 37 43 44 42 42 45 45 41 44 40 44 46 44 48 48 51 40 45 44 50 51 48 53 55 56 57 56
49 49 49 49 49 49 49 49 49 50 49 41 40 42 38 40 39 37 36 39 38 42 46 49 46 42 40 44 48 50 51 50 49 45 43 44 41 41 38 47 47 42 50 53 54 58 57
48 48 48 48 49 49 50 50 50 49 49 46 42 44 34 31 38 39 42 38 37 41 42 47 47 42 47 53 53 52 50 49 49 49 49 43 42 43 38 41 30 50 58 58 56 56 59
47 48 48 49 49 49 49 49 49 50 50 46 47 40 38 33 41 41 42 42 44 43 44 43 45 46 47 44 41 39 40 39 43 47 48 49 44 39 36 37 46 52 54 53 53 50 57
47 47 47 48 48 48 48 48 49 49 50 46 43 45 39 36 39 46 43 44 39 42 40 39 44 46 43 42 39 32 32 38 37 40 49 49 48 42 37 34 32 50 55 58 57 47 59
48 48 49 48 48 48 48 48 48 49 50 46 42 45 40 33 43 48 43 43 47 42 41 41 39 38 41 38 34 34 35 42 37 34 33 36 39 35 37 36 44 55 55 57 44 46 57
48 48 49 49 48 49 48 48 48 48 48 45 41 45 41 35 43 47 51 47 47 43 36 41 37 37 37 34 36 38 37 43 41 44 41 39 37 35 39 34 32 55 56 48 52 57 57
48 48 48 48 48 48 48 48 48 48 48 47 40 45 47 39 41 49 53 56 55 52 46 43 44 43 43 40 42 44 39 41 43 37 50 40 47 44 46 45 54 57 55 56 55 53 54

GFSGBSN_sfc_temp_069.txt.gz
Temp
60 60 60 59 59 59 60 60 59 58 58 58 58 58 58 58 58 58 57 57 57 57 57 58 58 58 63 66 69 88 72 73 81 78 77 78 77 76 71 76 79 75 78 81 83 83 82
59 59 59 59 59 59 59 59 58 57 57 57 57 57 57 57 57 57 57 57 56 56 57 57 58 57 61 55 82 86 83 82 83 80 79 81 79 82 77 76 76 80 79 79 81 82 81
59 59 58 58 59 59 58 58 58 58 57 57 57 57 57 57 57 57 56 56 56 56 57 57 58 63 60 63 83 86 83 80 80 80 77 82 84 79 79 73 80 79 72 76 78 80 79
59 59 59 58 57 58 57 57 57 58 57 57 57 57 56 56 56 56 55 55 55 56 57 57 58 65 58 79 84 80 81 78 81 82 79 82 84 78 76 80 76 71 72 64 77 79 80
58 58 58 58 57 57 57 57 57 57 57 57 56 56 56 55 55 55 55 55 55 56 58 59 62 62 60 73 71 78 80 73 75 77 80 81 79 72 73 67 65 68 62 65 70 80 78
58 57 57 57 57 57 57 57 57 56 56 56 56 56 56 55 55 54 54 54 60 59 61 70 69 58 65 66 75 76 77 73 70 67 70 71 70 65 66 65 54 61 63 67 67 76 75
57 57 57 57 57 57 57 57 57 56 56 56 56 56 55 55 55 54 57 69 66 61 65 61 63 62 68 76 77 74 76 71 67 61 51 67 61 57 62 64 67 69 68 67 72 78 72
56 56 56 56 57 57 56 57 56 55 55 56 55 55 55 55 55 55 59 60 56 57 46 61 62 63 68 70 61 68 72 62 57 50 56 61 56 64 67 68 67 67 65 65 72 76 70
56 55 56 56 56 56 57 57 56 55 55 55 55 55 55 54 54 57 63 61 68 65 51 59 64 63 65 67 59 62 68 62 53 48 50 51 63 66 64 64 63 65 63 64 65 72 72
55 55 55 55 55 56 56 55 55 55 55 54 54 54 54 53 53 61 60 66 69 64 44 56 60 63 64 63 56 69 72 62 50 45 48 54 65 62 60 60 66 59 69 68 66 64 57
54 54 54 54 54 53 54 54 55 55 55 54 54 54 53 53 57 58 64 68 67 58 36 58 60 72 66 60 63 62 71 62 49 45 47 46 57 59 57 61 66 62 70 68 66 63 62
53 53 53 53 53 54 54 54 54 54 54 54 53 53 53 58 58 61 67 66 60 41 36 53 61 59 58 62 60 63 62 65 60 48 48 48 59 57 61 66 67 70 66 66 65 62 50
53 53 53 53 53 53 53 53 53 53 54 53 53 53 53 60 54 64 64 54 42 37 58 53 54 58 58 58 58 58 51 49 44 35 39 47 50 59 62 59 65 65 60 49 46 47 46
52 52 52 52 52 52 52 52 53 53 53 53 53 52 56 61 60 62 58 46 34 49 51 60 57 57 54 59 58 56 52 46 50 46 41 36 36 54 62 62 58 61 60 51 41 43 51
52 52 52 52 52 52 52 52 52 53 53 53 52 56 55 58 62 59 45 36 43 50 56 52 54 50 53 56 54 56 52 50 50 51 37 42 41 57 58 64 62 59 55 65 55 55 52
52 52 51 50 51 51 52 52 52 52 53 52 54 52 53 61 62 51 37 36 48 55 54 53 45 52 47 52 50 50 50 50 47 53 55 48 41 55 55 62 63 60 67 52 56 41 40
51 51 51 50 50 48 50 51 52 51 52 51 51 42 58 63 57 41 32 40 48 56 57 49 48 49 50 49 50 45 44 47 47 48 53 54 50 48 57 52 53 54 56 59 59 56 45
51 51 50 50 50 51 51 51 51 50 52 49 50 35 57 60 37 41 34 44 50 51 56 53 53 50 49 50 48 47 39 46 48 48 46 55 50 43 51 62 63 61 59 59 50 49 55
50 50 50 50 50 50 50 50 51 50 50 54 39 45 57 51 33 37 43 46 50 48 50 51 50 53 54 49 43 50 47 49 48 46 44 45 47 39 43 53 62 56 60 62 60 57 45
50 50 50 49 48 48 49 48 49 50 51 50 39 33 45 45 46 42 41 42 43 52 50 52 51 54 51 46 50 46 48 48 49 46 47 49 47 44 42 48 57 53 59 62 59 50 51
50 49 49 49 49 49 50 49 50 50 50 48 38 36 44 34 39 43 44 43 42 44 50 53 48 50 46 40 43 44 50 52 53 47 47 49 38 44 52 52 56 55 56 59 57 57 51
49 49 49 49 49 49 49 50 50 50 49 44 34 39 46 43 46 42 42 41 41 46 47 45 46 50 50 45 46 44 49 49 46 50 45 46 38 38 44 53 53 52 56 56 57 58 58
49 49 49 49 49 49 49 50 50 50 48 41 44 49 43 40 43 39 39 43 43 47 49 50 49 49 47 48 51 53 54 53 52 48 44 43 39 35 35 44 47 41 51 53 54 59 59
48 48 49 49 49 49 49 49 49 49 48 47 47 48 36 33 39 43 44 42 43 45 42 46 53 48 50 55 55 54 53 52 51 50 51 43 41 41 33 39 29 48 61 60 55 57 61
48 47 48 48 49 49 49 49 49 49 49 46 51 43 40 33 44 44 44 44 46 47 43 45 50 52 53 48 41 39 41 42 45 50 50 50 44 38 32 34 39 50 53 53 50 51 61
48 48 48 48 47 48 48 49 49 49 50 50 50 50 41 35 40 49 45 47 42 41 41 45 47 49 43 39 37 34 33 40 40 44 52 51 48 41 39 30 29 46 57 60 61 43 61
48 48 49 49 49 48 48 48 48 49 49 50 49 51 42 34 45 45 42 44 50 47 41 46 42 40 42 37 34 36 37 47 38 35 39 41 41 37 37 37 45 57 59 61 42 41 60
48 48 48 48 48 49 48 48 48 48 49 48 48 52 43 35 44 50 51 45 49 47 37 43 39 37 35 34 36 39 39 43 43 47 42 41 38 37 40 37 34 59 58 48 53 59 59
48 48 48 48 48 48 48 48 48 48 48 49 44 51 50 40 39 52 55 58 55 50 43 42 41 39 42 40 43 44 41 43 45 38 52 41 48 44 46 45 57 60 55 58 59 57 56

GFSGBSN_sfc_temp_072.txt.gz
Temp
60 59 60 60 60 60 60 60 59 58 58 58 57 57 58 58 58 58 57 57 57 57 57 58 58 59 59 62 65 84 71 72 79 78 75 74 71 72 67 72 74 72 75 79 81 81 81
60 59 59 58 59 59 59 59 58 58 58 57 57 57 57 57 57 57 57 56 56 56 57 57 58 58 55 50 80 87 85 83 82 82 77 76 74 77 73 72 72 76 77 77 80 79 80
59 59 59 58 58 58 58 58 57 57 57 57 57 57 57 57 57 56 56 56 56 56 56 57 58 60 55 58 81 81 81 81 82 79 74 80 81 75 76 70 78 76 70 74 76 78 76
58 58 58 58 58 57 57 57 57 57 57 57 57 56 56 56 56 56 56 56 55 56 56 57 58 60 53 76 82 79 81 79 81 81 79 79 78 73 71 76 73 69 69 61 72 76 78
58 58 58 57 57 57 57 57 57 57 57 57 56 56 56 55 55 55 55 55 55 56 57 59 58 59 56 76 72 79 81 72 77 79 79 80 75 65 69 63 59 64 56 60 65 77 76
57 57 57 57 57 57 57 57 57 57 56 56 56 56 56 55 55 54 54 55 58 59 64 68 68 59 65 65 75 77 80 76 71 71 68 68 66 59 61 58 48 53 57 61 63 73 75
57 57 57 57 56 57 57 57 56 56 56 56 56 56 55 55 55 54 56 59 64 59 63 61 62 62 66 76 77 74 78 72 70 65 56 62 54 51 57 61 62 62 61 61 69 75 72
56 56 56 56 57 56 57 57 56 56 56 56 56 55 55 55 54 54 56 56 59 59 48 60 62 63 68 70 61 67 76 62 61 54 60 53 48 56 61 64 62 60 57 59 68 75 72
56 55 56 56 56 56 56 56 56 56 55 55 55 55 55 54 54 55 58 62 69 66 48 56 67 66 68 69 61 63 70 65 58 54 53 46 53 58 54 60 58 59 57 59 61 69 72
55 55 55 55 55 55 55 55 55 55 55 55 54 54 54 53 51 58 59 68 70 62 41 55 59 65 67 66 59 70 72 65 54 50 53 44 51 54 49 51 60 53 65 64 63 61 54
53 54 54 54 54 54 54 54 54 55 55 55 54 54 54 53 52 53 62 68 67 57 31 60 62 74 69 61 63 63 72 66 53 50 48 45 47 49 47 52 62 56 63 61 63 60 59
54 53 53 54 53 53 53 54 54 54 54 54 54 54 54 55 56 58 65 64 57 35 33 54 63 60 59 62 63 65 63 66 62 53 52 50 56 49 48 55 60 63 58 55 60 59 47
53 53 53 53 53 53 53 53 53 53 53 53 54 54 53 58 50 59 58 54 36 33 59 55 56 59 59 57 61 60 54 51 47 38 40 46 47 51 53 46 56 56 47 38 40 43 43
53 52 52 53 53 52 52 52 52 52 53 53 53 52 55 58 60 59 55 42 31 48 51 61 58 58 53 59 60 58 54 48 53 49 42 36 34 47 52 50 47 51 49 43 34 38 46
53 53 52 52 52 52 52 52 52 51 50 53 53 53 53 57 58 56 41 30 39 48 56 55 57 49 51 58 57 56 53 52 54 53 38 38 40 54 54 54 52 48 45 56 49 51 46
52 52 52 52 52 51 51 50 51 52 50 50 50 48 49 61 57 49 35 33 45 55 57 55 45 51 47 53 51 52 50 49 46 53 56 45 34 50 52 56 52 50 55 44 50 36 33
51 51 51 51 51 51 50 50 50 51 51 52 45 39 54 60 56 39 29 37 46 54 55 50 48 47 50 50 52 50 49 43 49 48 52 48 39 43 46 43 44 48 49 51 54 51 41
51 51 51 51 51 50 51 50 50 49 50 48 41 33 57 58 35 36 31 41 48 52 56 53 53 50 48 50 48 48 48 45 51 50 43 47 42 37 43 55 56 55 50 52 44 42 50
50 50 50 50 50 50 50 50 50 50 49 41 38 44 54 49 31 34 41 43 47 48 50 50 49 52 53 48 44 49 50 52 51 47 41 43 40 34 39 49 50 47 50 51 52 50 44
50 50 50 50 50 50 49 50 49 50 50 41 38 32 44 43 45 40 39 40 42 52 50 52 51 54 50 47 51 45 45 50 51 49 45 46 41 38 35 39 42 44 50 53 50 40 44
50 50 50 49 49 49 49 49 49 49 50 41 38 35 42 34 37 40 41 39 41 43 51 53 48 48 48 42 46 44 50 49 48 46 47 42 35 39 40 43 46 45 48 50 49 52 47
50 49 49 49 49 49 50 50 49 48 49 39 35 38 45 38 42 42 42 39 41 43 47 45 45 49 50 45 47 43 48 47 44 49 47 45 35 38 38 46 47 39 51 52 50 53 56
49 49 49 49 49 49 50 50 49 49 48 38 44 48 42 39 40 38 38 42 44 47 48 48 47 46 45 49 51 51 53 48 48 46 43 43 37 34 30 39 42 40 46 49 52 56 54
48 49 49 49 49 49 49 49 49 49 49 45 43 46 37 32 38 39 43 44 43 46 44 50 51 46 50 56 56 54 53 52 51 50 51 43 39 35 31 35 29 46 52 54 52 52 54
48 48 48 49 48 48 49 49 49 49 49 45 47 42 39 32 41 42 44 43 44 47 45 47 50 48 52 50 42 39 40 41 44 49 49 49 43 33 30 31 37 46 47 47 50 45 52
48 48 48 49 49 48 48 48 49 49 49 48 48 49 40 34 37 47 43 45 40 41 43 46 49 50 49 41 35 31 31 38 37 43 51 49 46 38 34 29 27 43 50 51 48 34 52
48 48 48 48 48 48 47 48 48 49 49 49 48 50 41 33 43 43 39 39 47 46 41 44 41 41 47 38 32 31 34 45 36 36 38 38 38 33 34 32 42 54 53 53 34 38 53
47 48 48 48 48 48 48 48 48 48 49 48 48 52 43 36 42 47 48 42 43 44 37 42 38 40 36 31 34 37 37 41 41 45 41 38 35 34 37 34 32 56 54 45 49 53 56
47 47 48 48 48 48 48 48 47 48 49 48 44 52 51 40 43 50 51 53 51 50 40 38 38 38 43 38 41 37 38 39 41 36 51 38 45 41 43 43 52 55 53 56 56 53 53

GFSGBSN_sfc_temp_075.txt.gz
Temp
60 60 59 59 59 59 59 60 59 58 57 57 57 57 58 58 58 58 57 57 57 57 57 58 58 58 54 52 56 71 68 69 69 72 69 67 63 60 56 61 63 62 65 69 72 73 73
59 59 59 59 59 58 58 58 58 57 57 57 57 57 57 57 57 57 57 56 56 56 57 57 58 58 50 43 70 75 73 73 74 68 69 69 66 67 63 63 62 67 67 68 71 71 72
58 58 58 58 58 58 58 57 57 57 57 57 57 57 56 56 56 56 56 56 56 56 56 57 57 57 49 48 66 67 69 68 72 70 66 70 69 63 63 60 69 67 61 65 67 69 67
58 58 58 58 57 57 57 57 57 57 57 57 57 56 56 56 55 55 55 55 55 56 57 57 58 53 45 66 65 66 69 69 73 73 70 71 70 64 60 64 64 59 60 52 63 67 70
58 58 58 57 57 57 57 57 57 57 57 57 56 56 55 55 55 55 55 55 55 56 57 58 51 49 47 71 63 68 71 68 70 71 69 76 67 59 59 51 49 52 46 50 58 69 68
58 57 57 57 57 57 57 57 57 56 56 56 56 56 55 55 54 54 54 54 56 56 60 63 61 49 57 59 70 72 72 72 65 64 63 60 55 50 49 45 39 45 48 50 54 64 66
57 57 57 57 57 57 57 57 56 56 56 56 56 55 55 55 54 54 51 48 51 49 53 51 54 53 59 68 70 66 70 68 64 59 48 55 44 41 46 51 53 54 53 51 59 67 65
56 56 56 56 56 56 57 57 56 55 56 55 55 55 55 54 54 54 50 45 55 53 42 56 56 56 61 63 55 62 68 57 55 47 52 48 41 50 56 57 56 54 51 50 58 64 63
55 55 55 55 56 56 56 56 55 55 55 55 55 54 54 54 53 50 49 52 62 59 39 48 58 57 59 63 56 58 63 57 52 48 48 44 51 56 52 52 50 48 47 53 53 61 63
54 53 54 54 54 54 55 55 54 55 55 54 54 54 53 53 48 48 49 61 61 58 34 44 54 62 65 64 55 66 66 59 51 46 46 43 50 48 47 48 51 41 53 56 57 54 41
54 54 54 53 53 53 53 54 54 54 54 54 54 53 53 53 45 43 53 58 60 52 21 55 57 71 66 57 60 60 66 58 48 47 45 42 44 44 42 48 53 46 55 53 52 45 45
53 53 53 53 53 53 53 53 53 53 53 53 53 53 53 49 45 49 57 55 50 33 24 51 58 55 55 57 58 59 57 59 56 48 49 46 52 47 45 53 54 53 48 51 48 45 34
53 53 53 53 53 53 53 53 53 52 52 52 53 53 51 52 40 53 55 48 31 26 51 51 50 56 53 53 54 53 50 46 40 34 35 43 45 50 50 44 51 49 43 33 33 32 32
52 52 53 53 53 53 52 52 52 52 52 52 52 52 49 51 50 53 49 36 24 40 43 57 57 55 50 54 53 52 47 40 47 43 37 32 30 45 50 45 44 47 40 36 29 29 38
53 53 53 52 52 52 52 52 51 51 51 50 50 45 44 47 50 50 38 25 30 40 50 49 52 47 46 52 51 50 46 43 48 47 35 35 37 49 51 52 48 42 36 47 38 43 34
52 52 52 52 51 52 52 51 51 51 51 51 42 41 41 50 49 43 32 28 36 46 50 48 42 48 41 46 48 48 45 45 46 51 50 42 32 48 51 50 49 46 51 36 35 29 29
51 51 51 51 51 51 51 51 51 50 50 50 41 35 44 51 47 36 26 30 39 47 48 45 44 44 45 43 45 45 41 41 48 48 49 47 37 40 45 40 38 41 38 40 40 38 34
51 51 51 51 51 51 51 51 51 50 50 45 38 29 44 51 32 34 29 36 43 42 48 46 47 46 43 44 42 43 43 43 48 48 41 43 38 32 40 50 51 47 41 41 34 36 41
50 50 50 50 51 50 50 50 50 50 50 41 34 34 45 44 27 29 35 37 40 40 42 44 44 48 48 43 38 44 44 48 48 45 40 41 36 30 36 44 51 43 45 45 42 41 35
50 50 50 50 50 50 50 50 50 50 49 41 33 27 34 34 34 33 32 34 36 46 44 46 46 48 45 42 45 41 44 47 48 46 46 44 38 34 30 35 37 35 41 46 42 35 38
50 50 50 50 49 50 50 50 50 49 49 41 33 31 35 21 30 32 35 34 34 37 46 48 43 44 42 37 40 39 44 44 47 46 44 41 31 37 39 42 41 41 39 40 42 41 37
50 50 49 49 49 49 50 50 50 49 46 38 32 32 37 33 35 33 35 35 34 37 39 39 41 44 43 38 41 39 43 41 41 42 42 41 32 35 35 44 40 37 41 41 43 44 44
49 49 49 49 49 49 49 49 50 49 45 35 38 40 35 34 35 31 32 35 38 43 44 46 40 38 37 41 43 44 44 44 44 42 37 38 34 31 28 38 36 32 40 41 44 47 46
49 49 49 49 49 49 50 49 49 50 48 39 40 36 30 25 31 34 38 39 35 39 38 45 46 40 44 50 48 47 45 46 43 43 45 38 35 33 28 33 27 40 51 49 45 47 50
48 48 49 49 48 49 49 49 49 49 50 40 39 35 32 24 33 35 38 40 41 41 39 41 45 42 44 43 35 33 32 35 39 44 42 43 37 30 27 28 36 42 43 42 44 39 45
48 48 49 49 49 48 48 48 47 49 50 42 41 40 36 30 29 41 35 38 33 34 36 40 42 44 41 37 31 26 24 32 32 38 46 44 41 34 31 27 26 39 45 50 50 35 46
48 48 48 48 48 48 48 48 48 49 49 44 39 42 37 32 36 38 33 33 36 35 32 38 38 40 39 30 25 24 26 40 30 31 32 34 35 30 29 28 34 49 49 52 33 35 47
47 47 48 48 48 48 48 48 48 48 49 44 40 42 38 32 36 41 42 37 38 37 32 35 35 37 34 26 27 28 27 35 35 35 37 33 30 28 30 28 27 50 47 39 44 48 49
47 47 48 48 48 48 48 48 48 48 48 48 37 45 44 37 35 43 44 46 44 43 39 35 35 35 38 34 32 32 31 33 36 29 42 33 38 34 36 35 47 50 47 51 51 48 48

GFSGBSN_sfc_temp_078.txt.gz
Temp
59 59 59 59 59 58 59 59 58 57 57 57 57 57 57 58 58 57 57 56 56 57 57 58 58 58 52 47 50 66 69 69 69 68 65 63 59 57 51 55 57 55 59 64 66 66 66
59 58 58 58 58 58 58 58 58 57 57 57 57 57 57 57 57 57 56 56 56 56 56 57 58 58 48 39 64 68 67 67 67 66 66 65 62 63 58 56 55 60 61 62 65 65 67
58 58 58 58 57 57 58 57 57 57 57 57 57 56 56 56 56 56 56 56 55 55 56 57 57 56 48 45 61 61 62 62 65 66 62 65 64 58 57 54 61 61 54 60 62 62 61
58 58 58 58 57 57 57 57 57 57 57 57 57 56 55 55 55 55 55 55 55 55 56 57 57 54 43 62 59 60 60 63 67 68 66 68 66 60 57 60 58 54 52 46 58 62 63
58 58 58 58 57 57 56 56 57 57 56 56 56 56 55 55 54 54 54 54 54 56 56 57 51 47 42 64 59 65 64 62 67 68 65 73 63 56 55 47 44 47 43 46 51 62 61
58 58 57 57 57 57 57 57 57 56 56 56 56 56 55 55 54 54 54 54 55 56 57 59 57 46 52 57 65 68 65 67 63 61 60 57 52 46 44 42 36 40 42 43 46 55 62
57 57 57 57 57 57 57 57 56 56 55 55 56 55 55 54 54 54 52 45 50 47 51 49 50 50 55 63 65 62 66 63 61 56 46 51 42 38 42 46 49 49 46 45 50 59 58
56 56 56 56 56 56 56 56 56 55 55 55 55 55 54 54 54 54 47 44 50 53 40 53 53 53 57 60 51 58 63 54 53 45 48 44 39 47 51 51 49 48 45 45 52 59 59
55 54 54 55 55 55 55 55 55 54 54 54 54 54 54 53 53 47 44 47 57 55 39 46 53 52 54 57 50 53 58 54 49 45 46 41 47 53 50 47 45 45 45 45 45 53 57
54 54 54 54 54 54 54 54 54 54 54 54 54 54 53 53 46 44 46 55 55 52 30 40 48 54 58 59 50 61 62 56 50 45 45 43 48 47 44 43 47 39 51 50 48 46 38
54 54 53 53 54 53 53 53 54 54 54 53 53 53 52 53 41 39 48 53 54 47 20 50 54 67 62 55 56 56 63 55 45 45 45 42 43 42 41 43 48 43 52 49 47 42 40
53 53 53 53 53 53 53 53 53 53 53 53 52 53 52 47 41 44 50 51 45 30 21 45 55 53 52 55 56 57 56 58 53 45 45 45 48 47 45 48 50 54 47 47 47 41 31
53 53 53 53 53 53 53 53 52 52 52 52 52 52 49 49 38 45 47 42 27 23 46 45 48 52 51 49 51 51 48 44 39 34 33 40 42 47 49 42 49 46 41 32 29 29 29
52 52 52 53 53 52 52 52 52 52 52 52 52 50 47 48 44 43 44 35 23 36 37 49 47 51 45 50 49 49 44 39 44 41 35 29 29 42 47 44 41 40 40 32 26 27 34
52 53 52 52 52 52 52 52 52 51 51 51 50 40 39 42 45 42 36 25 28 35 44 40 44 45 44 50 48 46 42 40 43 44 34 33 34 45 48 48 47 39 36 45 35 37 32
52 52 52 52 51 51 51 51 51 51 51 51 41 39 41 46 43 40 32 28 33 42 43 42 34 42 38 42 42 42 41 43 43 47 46 40 31 44 47 49 49 43 46 34 35 28 27
52 52 51 51 51 51 51 51 51 51 50 49 37 34 42 45 42 35 24 28 36 43 44 40 36 36 40 39 41 39 39 42 45 44 47 41 37 37 43 40 39 39 38 39 40 36 31
51 51 51 51 51 51 51 51 51 50 49 44 34 28 40 43 31 31 27 33 41 40 44 42 42 40 40 41 40 40 41 42 46 45 39 41 38 31 36 47 49 45 38 41 33 32 38
51 50 50 50 50 50 51 50 50 50 49 38 33 32 41 43 26 25 31 34 38 36 38 40 39 43 44 40 36 41 41 45 47 43 38 40 35 29 33 41 45 41 43 43 41 40 35
50 50 50 50 50 50 50 50 50 50 49 39 33 25 30 32 32 31 29 30 31 41 39 41 41 43 40 39 42 38 40 44 46 43 46 43 35 31 27 33 38 34 37 38 39 33 36
50 50 50 50 50 50 50 50 50 49 48 40 33 24 33 27 29 32 32 31 30 32 41 43 41 40 38 34 38 36 42 41 45 45 42 39 31 33 36 40 41 40 38 40 36 37 35
50 50 50 50 49 49 49 49 49 49 48 38 30 30 34 32 33 31 32 31 31 35 34 36 36 41 39 35 37 34 40 39 38 39 39 39 29 32 31 40 42 38 40 41 42 40 39
49 49 49 49 49 49 49 49 49 49 46 36 37 37 34 32 32 29 29 30 33 35 37 41 38 36 36 40 41 42 43 43 42 38 37 35 33 29 24 37 36 31 37 41 43 44 44
49 49 49 49 49 50 50 49 49 49 46 40 39 37 29 25 31 31 35 37 33 34 33 40 41 38 43 47 46 44 43 43 42 41 41 33 32 30 26 31 24 39 47 46 42 43 49
49 49 49 49 49 49 49 49 49 49 48 40 40 36 32 23 33 34 35 36 38 39 37 39 42 43 44 42 34 32 31 33 36 40 39 40 33 27 24 25 34 40 40 42 36 36 46
48 48 48 49 49 49 49 49 49 47 49 39 36 38 36 28 29 37 33 35 30 30 33 38 41 42 40 33 30 25 23 31 31 35 42 40 37 30 27 24 23 36 46 49 47 33 45
48 48 48 48 48 48 48 48 48 48 48 41 41 39 37 30 32 35 30 30 35 33 32 35 35 36 37 27 23 23 25 36 27 29 30 29 29 28 27 27 33 46 47 48 32 35 45
47 48 48 48 48 48 48 48 48 48 49 44 42 40 36 32 33 38 39 33 33 34 29 34 33 36 34 26 25 27 23 31 30 36 34 32 28 27 28 27 26 49 46 37 41 44 45
47 47 47 48 48 48 48 48 48 48 49 47 39 41 40 35 32 40 42 43 41 41 35 36 34 34 34 31 29 31 28 30 34 28 39 30 36 30 34 34 44 46 44 46 47 43 44

GFSGBSN_sfc_temp_084.txt.gz
Temp
58 58 58 58 58 58 58 58 57 57 57 57 56 57 57 57 57 57 56 56 56 56 56 57 57 57 50 42 45 59 65 64 63 62 59 59 55 53 49 51 50 48 51 55 57 57 56
58 57 57 57 57 57 57 57 57 56 57 57 56 56 56 56 56 56 56 55 55 55 56 56 57 56 45 36 58 59 58 59 62 59 58 59 58 58 52 52 50 52 51 53 55 56 56
57 57 57 57 57 56 56 56 56 56 56 56 56 56 56 56 56 55 55 55 55 55 55 56 56 54 45 43 57 57 57 55 59 60 57 61 61 55 53 50 55 54 47 50 52 53 53
57 57 57 57 56 56 56 56 56 56 56 56 56 55 55 55 55 55 55 54 54 55 56 57 56 51 41 60 58 55 54 55 58 59 60 63 62 56 52 55 53 47 45 39 49 52 55
57 57 57 56 56 56 56 56 56 56 55 55 55 55 55 54 54 54 54 54 55 56 56 56 50 46 40 62 55 61 59 57 59 58 59 68 58 52 50 43 39 39 35 38 45 54 53
56 56 56 56 56 56 56 56 55 55 55 54 55 54 54 54 54 53 53 54 54 55 55 55 55 43 50 53 61 63 61 61 59 58 55 54 48 43 40 39 31 34 36 32 36 48 48
55 55 55 55 55 55 55 55 55 54 54 54 54 54 54 54 54 53 50 43 42 41 44 41 43 45 49 58 63 60 63 60 58 54 45 49 41 34 39 42 43 42 39 37 39 48 46
55 54 54 54 54 55 55 55 54 54 54 54 54 54 53 53 53 52 43 41 43 44 33 44 45 45 52 56 48 55 61 52 51 44 48 43 37 45 47 45 43 41 37 36 42 48 47
54 54 54 54 54 54 54 54 54 54 53 53 53 53 53 52 52 44 37 42 47 49 32 41 48 48 49 51 44 48 55 52 47 44 44 40 44 49 46 43 40 39 37 37 39 45 46
53 53 53 53 53 53 53 53 53 53 53 53 52 52 52 52 44 39 39 46 47 45 30 35 43 46 52 52 42 55 58 53 47 43 44 41 46 46 43 41 42 34 45 44 41 38 30
53 53 52 53 53 52 52 52 52 53 52 52 52 52 52 52 39 36 44 45 47 41 16 42 46 58 53 45 49 49 57 52 44 43 44 39 40 40 39 42 45 39 45 42 41 36 36
52 52 52 52 52 52 52 52 52 52 52 52 52 52 52 44 38 40 42 43 41 28 18 36 48 47 45 47 48 50 48 53 50 43 42 42 45 44 44 45 46 46 42 41 40 41 27
52 52 52 52 52 52 52 52 52 52 52 51 51 51 48 46 36 41 41 37 24 18 38 35 37 42 43 42 45 46 43 40 37 32 33 38 39 43 46 40 43 41 35 25 24 28 25
52 52 52 52 52 51 51 51 51 51 51 51 50 49 45 44 40 41 37 30 18 31 30 41 39 41 38 38 41 45 40 35 39 38 31 29 29 39 44 41 37 36 35 29 22 24 28
52 52 52 52 51 51 51 51 51 51 51 50 49 37 36 38 40 39 30 21 24 28 35 33 36 33 34 37 34 39 38 37 40 41 33 31 31 41 43 44 43 39 33 40 33 34 30
51 51 51 51 51 50 51 51 51 51 50 49 36 34 34 40 40 35 26 24 28 36 37 36 28 34 28 32 31 32 36 41 39 43 42 37 30 40 42 44 43 41 43 34 33 22 23
51 51 51 51 51 50 50 50 51 51 50 48 34 28 37 39 39 34 20 25 30 38 38 33 31 29 32 30 32 30 37 39 42 40 43 40 37 35 41 37 35 38 36 37 36 34 27
51 51 50 50 50 50 50 50 50 50 49 41 31 22 37 39 27 27 19 30 37 34 38 35 35 34 32 32 31 30 32 37 42 42 36 40 37 29 34 41 43 41 38 40 32 29 33
50 50 50 50 50 50 50 50 50 50 48 34 29 28 36 36 12 18 30 31 34 32 33 33 33 37 36 32 27 32 33 42 43 40 39 40 34 27 31 36 39 38 40 39 36 36 32
50 50 50 50 50 50 50 50 50 50 49 36 27 23 26 33 25 23 25 27 28 36 33 36 34 36 34 32 34 30 32 39 44 43 45 43 33 31 27 29 33 28 36 39 37 28 29
50 50 50 49 50 50 50 50 50 49 49 37 29 22 27 19 23 24 29 27 26 26 35 37 33 32 32 28 31 31 34 37 42 44 39 37 30 31 32 35 35 34 34 36 34 36 31
50 50 49 49 49 50 49 49 49 49 48 37 26 29 31 23 28 26 28 26 27 29 30 30 30 34 36 30 34 31 33 38 37 38 36 37 28 30 29 34 35 32 36 36 36 37 37
49 49 49 49 49 49 49 49 49 49 46 35 37 38 32 28 27 22 25 27 28 30 34 35 36 33 32 36 40 41 41 40 39 35 33 34 29 26 20 30 30 27 33 36 37 41 40
49 49 49 49 49 49 49 49 49 49 46 37 34 36 28 21 26 29 32 34 30 31 29 36 37 34 38 42 43 40 38 38 38 38 38 32 32 28 24 27 14 34 40 40 37 40 43
48 49 49 49 49 49 49 48 48 49 49 40 35 33 31 22 29 30 32 32 33 33 31 33 35 38 41 37 32 31 30 31 34 36 35 36 31 25 20 21 28 34 38 36 33 35 42
49 49 49 49 48 48 48 48 48 49 49 42 41 39 33 24 26 33 30 32 29 29 31 35 41 41 39 32 30 26 22 29 29 31 37 34 34 29 25 20 15 32 41 45 43 30 38
48 48 48 48 48 48 48 48 48 49 49 43 40 42 36 27 30 32 28 29 34 32 29 32 33 33 36 27 24 22 25 32 27 28 29 28 30 27 25 25 28 38 41 46 30 31 35
48 47 48 48 48 48 48 48 48 48 48 44 40 42 37 30 29 35 36 30 32 30 24 31 30 31 31 28 27 26 24 29 28 32 31 29 27 27 29 25 21 40 42 36 38 37 34
47 47 47 47 47 47 48 48 48 48 48 46 38 43 41 33 30 36 38 39 38 37 32 33 31 32 33 31 30 33 28 27 28 23 35 27 31 28 31 29 36 36 36 37 37 34 36

GFSGBSN_sfc_temp_087.txt.gz
Temp
58 58 57 57 57 57 58 57 57 57 56 57 56 56 57 57 57 57 56 56 56 56 56 56 57 57 53 46 50 62 63 63 66 64 63 61 59 57 53 55 56 53 56 60 61 62 62
57 57 57 57 57 57 57 57 56 56 56 56 56 56 56 56 56 56 56 55 55 55 55 56 57 57 48 40 63 62 60 61 63 62 62 62 61 62 58 57 56 58 57 58 60 61 62
57 57 57 57 56 56 56 56 56 56 56 56 56 55 55 55 55 55 55 55 55 55 56 57 57 55 45 45 62 63 60 59 62 63 60 63 65 61 59 55 60 58 53 56 57 60 59
57 57 57 56 56 56 56 56 56 56 55 55 55 55 55 54 54 54 54 54 54 55 57 57 57 53 43 60 62 59 59 57 60 60 61 65 66 62 59 61 57 53 52 47 56 57 59
57 57 57 55 56 55 55 55 56 55 55 55 55 55 54 54 53 53 53 53 54 56 56 56 51 47 42 62 56 63 60 57 61 59 60 67 63 57 56 51 47 46 43 44 50 58 58
57 56 56 56 55 55 55 55 55 54 54 54 54 54 54 53 53 53 52 53 54 56 56 56 55 44 52 51 60 63 63 61 59 57 56 56 55 50 48 48 37 41 41 44 46 53 55
56 55 55 55 55 55 55 55 54 54 54 54 54 54 53 53 53 53 50 47 44 44 45 39 43 43 48 57 62 60 63 60 59 57 48 52 46 42 46 50 50 46 44 42 47 53 50
55 55 54 54 54 54 54 54 54 53 53 53 53 53 53 53 53 52 46 42 42 42 33 44 44 46 50 53 45 54 62 52 53 46 50 46 42 49 50 49 47 46 43 43 47 51 50
54 54 54 54 54 54 53 53 53 53 53 53 53 53 52 52 52 45 42 43 49 46 33 39 47 47 48 50 42 46 55 54 50 45 46 43 47 51 48 46 43 44 42 42 43 48 51
53 53 53 53 53 53 52 53 53 53 53 52 52 52 52 51 45 42 43 47 47 46 32 37 44 49 53 52 43 55 58 55 50 45 46 46 51 48 46 44 46 39 48 47 44 42 38
53 53 53 52 52 52 52 52 52 52 52 52 52 52 51 50 42 40 46 46 47 43 20 43 47 60 55 48 51 51 58 53 46 46 47 43 44 43 43 45 48 44 48 46 45 42 40
52 52 52 52 52 52 52 52 52 52 52 52 51 51 51 45 41 44 44 45 44 31 20 36 47 43 44 49 49 52 50 55 54 47 47 47 50 48 48 48 50 50 46 45 44 42 32
52 52 52 52 52 51 51 51 51 51 51 51 51 51 48 47 39 44 44 42 29 21 39 34 35 40 41 39 43 45 44 42 40 35 36 41 43 48 49 44 47 46 41 33 30 29 31
52 51 52 52 51 51 51 51 51 51 51 51 50 49 44 45 43 43 40 34 21 31 32 39 37 38 37 38 40 39 36 39 44 42 39 35 31 42 48 46 42 41 40 35 26 28 33
52 51 52 51 51 51 50 51 51 51 51 50 48 39 39 42 42 41 33 21 26 30 33 32 35 33 34 37 37 36 35 38 44 44 37 35 34 44 46 48 48 40 36 44 34 37 33
51 51 52 51 51 50 50 50 51 51 50 49 38 36 37 41 42 39 28 25 30 36 36 35 27 34 26 32 32 33 32 42 44 46 48 41 33 43 45 48 47 45 47 33 34 24 24
51 51 51 50 50 50 50 50 50 50 49 47 35 32 40 42 42 35 22 26 32 38 37 32 30 28 30 29 33 30 32 39 42 44 47 45 41 37 43 41 39 40 37 37 37 34 30
50 50 51 50 50 50 50 50 50 50 48 41 33 24 40 41 28 29 25 30 35 35 38 35 35 33 30 32 30 30 29 34 37 40 41 43 40 34 37 45 47 45 41 41 31 30 33
51 50 50 50 50 49 49 49 49 50 48 35 30 30 39 38 20 23 30 31 34 32 33 33 33 36 37 31 25 33 33 41 36 36 41 44 37 32 32 39 43 40 38 37 36 35 32
50 50 50 50 50 49 49 50 50 49 47 36 28 21 30 35 29 27 25 27 28 37 34 35 34 36 33 30 35 30 31 36 36 41 44 45 37 35 32 33 37 33 38 41 38 32 34
50 50 50 50 49 50 50 50 50 49 48 36 29 24 29 21 27 28 26 26 26 26 35 36 32 32 32 28 31 30 33 33 37 41 42 42 34 36 37 38 38 37 37 39 36 38 32
50 50 49 49 49 49 49 49 49 49 48 35 29 29 32 30 28 23 27 25 27 29 29 30 28 33 34 29 33 30 33 34 35 40 39 41 32 34 34 37 37 35 39 40 39 39 39
49 49 49 49 49 49 49 49 49 48 45 36 37 38 32 29 29 25 25 27 28 30 34 37 32 31 32 35 39 40 41 39 39 38 37 36 34 31 28 34 35 30 36 39 41 43 42
49 49 49 49 49 49 49 49 49 48 46 39 36 36 29 24 28 29 31 32 31 30 27 32 35 32 39 43 42 40 40 40 40 41 41 35 34 32 28 30 22 38 45 43 40 42 43
48 49 48 49 49 49 49 49 48 48 48 40 38 35 31 25 30 30 31 31 32 32 31 32 33 36 39 38 34 33 33 36 38 39 38 39 35 29 26 27 33 38 41 40 37 37 36
48 48 49 48 49 48 48 48 48 48 49 42 41 40 35 27 28 33 30 32 29 29 31 33 39 41 36 34 33 28 26 31 31 34 38 38 38 33 28 23 21 35 41 46 44 31 35
47 47 48 48 48 48 48 48 48 48 48 44 41 42 36 28 33 33 30 30 35 32 29 33 33 33 39 33 30 27 28 34 29 30 30 30 31 28 28 26 32 35 40 46 31 30 35
47 48 48 48 48 48 48 48 48 48 48 43 41 41 36 30 32 36 37 33 34 33 27 33 32 34 33 30 30 29 28 31 30 33 32 32 29 29 31 26 24 36 42 33 36 35 34
47 47 47 47 47 47 48 47 48 48 48 46 39 42 41 34 34 38 40 42 39 39 34 34 32 33 33 30 32 33 30 31 29 27 36 29 30 28 32 30 33 34 32 33 34 33 33

GFSGBSN_sfc_temp_090.txt.gz
Temp
59 58 58 58 58 58 58 57 57 56 56 56 56 56 57 57 57 56 56 56 56 56 56 57 57 57 60 60 64 74 65 69 75 72 70 69 67 66 61 65 67 62 67 70 71 71 71
58 58 58 57 57 57 57 56 56 56 56 56 56 56 56 56 56 56 55 55 55 55 56 56 57 57 57 53 73 72 70 71 73 72 68 70 68 71 66 65 63 68 66 68 69 68 69
58 58 57 57 57 56 56 56 56 56 55 55 55 55 55 55 55 55 55 55 54 55 55 57 57 60 54 60 72 74 71 69 71 72 68 70 71 66 67 62 68 64 59 64 67 68 66
58 58 57 57 56 56 56 56 56 56 55 55 55 55 54 54 54 54 54 54 54 55 57 57 57 59 54 69 74 69 71 69 70 71 69 71 69 66 65 69 64 59 60 53 65 66 67
58 57 57 57 56 56 55 55 55 55 55 55 55 54 54 54 53 53 53 54 54 56 57 57 59 56 55 67 64 71 71 65 68 67 68 71 67 62 63 56 54 57 50 55 58 64 64
58 57 57 56 56 55 55 55 54 54 54 54 54 54 54 53 53 53 52 54 56 58 61 63 63 52 61 60 67 69 74 67 64 62 59 60 61 56 54 54 44 50 50 52 53 62 62
58 56 56 55 55 55 55 55 54 54 54 54 54 54 53 53 53 53 58 65 59 57 55 51 54 52 55 65 68 64 70 67 66 60 51 56 51 49 54 53 54 54 51 53 58 61 57
56 56 55 55 55 55 55 54 53 53 53 53 53 53 53 53 53 52 60 52 47 49 39 53 54 53 57 59 49 60 66 57 59 52 55 50 47 57 57 56 52 52 49 50 57 59 57
55 55 55 55 54 54 54 53 53 53 53 53 53 53 52 52 52 56 54 50 57 54 39 51 54 54 56 56 51 56 60 59 53 53 53 48 54 58 54 49 46 49 48 50 50 56 58
54 54 54 54 53 53 53 53 53 53 52 52 52 52 52 51 52 54 55 58 58 53 41 47 51 56 59 58 51 66 64 59 55 50 54 51 58 53 52 50 51 45 55 52 50 49 46
53 53 53 53 53 52 52 52 52 52 52 52 52 52 51 50 53 54 54 58 57 50 29 48 52 64 61 54 57 59 65 58 50 53 54 49 50 50 48 51 54 50 54 52 51 50 49
53 53 53 53 52 52 52 52 52 52 52 52 52 51 51 54 56 56 57 56 54 39 29 43 51 48 49 54 54 59 57 60 59 52 55 55 57 54 55 57 55 57 51 51 52 50 41
52 52 52 52 52 52 52 52 51 51 51 51 51 51 53 56 50 55 55 53 38 31 46 40 40 46 47 48 49 49 48 48 44 39 42 51 50 54 55 49 53 53 47 38 36 36 39
52 52 52 52 52 51 51 51 51 51 51 51 50 48 49 55 55 53 53 44 28 38 38 44 42 44 41 45 45 46 43 43 50 49 47 40 37 48 53 52 47 48 49 42 33 37 44
52 52 52 52 51 51 51 51 51 51 50 50 49 55 53 52 53 54 46 31 35 36 38 36 39 37 40 42 42 43 43 40 47 52 43 42 42 53 53 56 55 46 41 52 41 45 39
52 52 52 51 51 51 50 50 51 50 50 48 53 52 49 52 53 51 39 30 35 41 41 39 31 37 31 37 36 38 39 37 39 48 54 48 39 48 50 55 53 51 55 38 42 30 31
51 51 52 51 51 50 50 50 50 50 49 47 50 45 49 53 52 46 31 34 37 43 42 36 34 33 35 33 36 36 37 41 33 39 45 44 46 42 48 46 45 45 44 44 44 42 34
51 51 51 50 50 50 50 50 50 49 48 49 47 37 50 51 39 39 36 36 39 40 43 40 39 38 35 36 34 34 33 39 42 37 33 50 46 39 42 49 55 52 48 47 39 34 41
50 51 50 50 50 50 50 50 50 49 48 51 42 45 51 48 31 36 38 37 39 38 39 38 37 41 42 36 29 35 37 44 41 34 35 50 45 36 37 44 49 46 44 45 43 43 37
51 50 50 50 50 50 50 50 50 49 47 52 40 33 44 46 38 31 31 34 34 42 39 40 38 41 38 36 40 32 35 37 36 34 37 44 45 43 39 40 45 39 44 47 44 37 42
50 50 50 50 50 50 50 50 50 49 48 51 40 35 37 33 37 34 32 31 32 32 39 41 37 36 34 30 35 34 36 33 35 39 45 48 40 44 45 46 46 45 44 46 43 44 38
50 50 50 49 50 50 50 49 49 49 47 47 34 41 37 36 35 29 32 31 31 33 31 34 32 37 36 32 37 30 33 34 34 39 37 47 38 41 39 43 44 40 44 46 46 46 46
50 50 49 49 49 49 50 49 49 49 49 45 46 44 41 36 36 33 34 32 31 31 37 37 32 32 34 39 44 44 44 43 41 36 36 41 40 38 32 41 40 36 42 44 46 48 47
50 50 50 49 49 50 49 49 49 48 48 52 49 45 36 35 38 36 36 37 33 31 29 35 36 33 38 44 46 46 44 44 44 44 44 40 40 39 34 36 25 43 50 48 45 45 41
49 49 49 49 49 49 49 49 49 49 48 49 49 44 39 31 38 38 37 36 36 36 31 31 35 36 38 39 34 35 37 39 41 43 44 46 42 36 32 33 39 42 44 44 41 37 36
49 49 49 48 49 49 49 48 48 49 49 46 44 47 39 34 40 39 37 37 35 32 35 33 43 41 37 37 38 32 30 35 35 38 45 42 44 38 35 25 25 38 46 51 50 32 35
48 48 48 49 49 48 48 48 48 48 49 45 42 43 38 33 44 41 38 35 40 37 34 39 37 40 46 40 36 33 34 39 34 34 35 37 34 33 34 32 38 39 43 50 33 30 34
48 47 48 48 48 48 48 48 48 48 48 46 42 44 39 33 42 43 44 40 41 40 33 39 39 40 38 34 35 36 35 37 36 37 35 35 32 34 34 30 27 35 44 34 32 34 34
46 47 48 48 48 48 48 48 48 48 48 48 41 45 42 36 41 45 47 49 47 46 40 40 37 37 37 36 36 35 35 38 35 32 40 31 32 31 29 27 32 34 33 34 35 32 33

GFSGBSN_sfc_temp_093.txt.gz
Temp
60 60 60 59 58 58 58 58 57 56 56 56 56 56 56 57 57 56 56 56 56 56 56 56 57 58 61 65 70 74 67 70 78 78 76 74 71 71 66 70 73 69 71 74 76 76 75
59 59 59 58 58 58 58 57 57 56 56 56 56 56 56 56 56 56 56 55 55 55 56 56 58 58 61 58 80 80 77 77 78 78 76 76 74 76 70 70 69 73 72 72 72 73 74
58 58 58 58 58 57 57 57 56 56 56 56 56 55 55 55 55 55 55 55 55 55 55 57 58 63 62 65 81 81 78 76 79 77 74 78 78 72 71 66 73 71 64 68 69 70 69
58 58 58 57 57 56 56 56 56 56 55 55 55 55 55 54 54 54 54 54 54 55 56 58 58 67 59 78 80 76 79 76 79 78 76 78 78 72 69 71 68 62 63 57 68 71 72
57 58 58 57 57 56 56 56 56 55 55 55 55 54 54 54 54 54 54 54 55 56 58 58 62 63 60 68 70 77 78 71 74 75 75 76 72 66 67 59 56 60 50 54 62 72 67
57 56 57 57 56 56 56 56 55 54 54 54 54 54 54 54 54 53 53 53 58 57 61 69 69 57 66 66 72 73 77 75 69 70 66 65 65 60 61 58 47 52 52 57 56 66 67
56 56 57 56 56 56 56 55 54 54 54 54 54 54 54 54 53 53 57 70 64 60 65 60 62 61 63 71 73 69 74 71 70 65 56 62 55 52 57 60 60 58 56 55 60 69 63
56 56 56 56 56 56 56 55 54 54 53 53 53 53 53 53 53 53 64 59 54 55 48 61 62 62 65 66 57 67 72 61 61 55 61 58 50 60 63 62 58 54 53 52 59 65 63
54 54 55 55 55 55 55 54 53 53 53 53 53 52 52 52 53 58 61 57 64 61 49 58 63 61 62 63 58 62 66 63 57 55 57 54 58 63 59 58 53 53 52 52 54 59 64
54 54 55 55 54 54 54 54 53 53 53 52 52 52 52 51 52 62 60 63 65 60 45 52 56 61 63 63 56 69 72 64 59 53 56 56 63 59 57 55 55 46 58 55 53 52 44
54 54 54 54 53 53 53 53 53 52 52 52 52 52 52 52 59 60 60 64 63 55 34 55 58 69 65 58 61 63 71 64 53 54 56 50 55 55 52 55 58 50 58 56 55 50 49
53 52 53 53 52 52 52 52 52 52 52 52 52 52 52 58 61 61 64 62 58 42 35 48 56 53 53 57 59 64 63 67 63 55 56 56 64 61 58 60 59 61 56 54 53 50 41
52 52 53 52 52 52 52 52 52 51 51 52 51 51 55 61 55 62 61 57 43 37 53 46 45 50 49 49 53 56 54 53 50 44 43 53 54 53 61 54 59 56 49 38 37 39 37
52 52 52 52 52 52 52 52 51 51 51 51 51 50 51 60 62 60 57 48 33 45 45 52 47 46 43 49 50 50 49 47 55 52 46 40 38 52 58 55 51 50 50 41 33 36 44
52 52 52 52 52 52 51 51 51 51 50 50 50 58 59 58 59 59 51 36 40 42 46 42 43 40 43 46 38 45 46 46 50 44 39 42 42 58 59 60 58 49 45 55 45 46 42
52 52 52 52 51 51 51 51 51 51 50 50 58 57 54 58 59 56 46 35 41 46 45 44 35 40 35 40 40 41 42 46 41 39 41 43 36 50 57 59 59 54 57 41 45 33 34
52 52 51 51 51 51 51 51 51 50 50 50 54 51 54 58 57 53 36 41 42 48 47 40 38 37 38 37 40 39 40 47 37 37 40 42 44 44 54 49 49 49 45 48 49 47 38
51 51 51 51 51 50 50 51 50 50 49 47 54 42 57 57 45 48 41 41 43 45 49 45 44 41 38 39 37 37 37 42 43 42 34 43 40 37 46 56 60 55 50 49 40 38 45
50 50 51 50 50 50 50 50 50 50 49 57 52 52 57 54 36 41 43 42 44 43 44 43 40 43 43 39 32 39 41 48 46 37 36 36 36 33 33 44 52 49 52 54 48 47 40
50 50 51 50 50 50 50 50 50 50 49 52 47 36 49 53 44 38 36 38 39 47 44 45 43 45 41 37 43 38 40 44 41 35 39 37 34 38 34 43 47 41 45 49 47 40 43
50 50 50 50 50 50 50 50 50 49 49 50 47 40 45 38 40 39 37 35 36 35 43 45 40 40 36 32 37 38 39 35 39 38 37 36 40 45 46 50 51 48 47 49 45 47 42
50 50 50 50 50 50 50 50 50 49 49 50 38 46 46 41 40 33 36 34 35 36 36 37 35 39 39 35 39 33 37 38 34 39 35 40 39 47 44 50 50 45 48 49 49 49 50
50 50 50 50 50 50 50 50 49 49 48 47 54 52 49 40 42 39 39 36 35 33 40 41 37 34 37 41 45 46 47 45 42 36 35 39 45 44 35 46 45 38 45 47 49 51 47
50 50 50 49 50 50 50 50 49 49 49 50 54 53 41 40 44 43 41 42 38 36 30 38 40 36 41 47 46 49 47 46 46 44 45 38 43 43 34 39 29 44 54 53 47 45 47
50 50 50 50 50 49 50 49 49 49 49 50 55 48 41 35 45 43 42 42 44 41 34 33 39 39 43 37 34 37 39 41 42 46 46 49 43 37 35 38 42 45 47 46 44 35 40
49 49 49 49 49 49 49 49 49 49 49 49 54 55 47 37 44 45 42 45 41 37 38 35 46 47 39 36 35 31 32 38 37 40 48 47 48 41 39 33 29 37 47 52 49 29 36
49 49 49 48 49 49 49 49 49 49 49 48 49 48 41 38 49 46 42 40 46 43 41 44 42 44 50 38 36 35 36 44 36 35 37 40 40 36 36 37 36 39 47 50 32 27 36
48 48 49 48 48 49 49 49 49 49 49 49 46 50 44 40 46 49 50 44 46 46 39 44 43 44 41 35 36 38 37 41 39 41 37 36 32 35 37 34 28 38 45 32 31 34 35
48 48 48 48 48 48 48 48 49 49 49 49 42 50 46 37 45 50 51 52 50 50 45 45 41 41 40 36 37 38 37 39 39 31 44 33 34 31 32 29 34 36 34 35 36 33 33

GFSGBSN_sfc_temp_096.txt.gz
Temp
61 61 60 60 60 59 59 59 58 57 57 57 57 56 57 57 57 57 56 56 56 56 56 57 57 58 60 61 67 72 67 69 75 74 72 73 70 69 64 68 70 67 70 74 76 76 75
60 60 59 59 59 59 59 58 58 57 57 56 56 56 56 56 56 56 56 55 55 56 56 56 57 57 57 55 83 82 79 79 78 78 75 75 72 75 69 68 67 71 71 72 74 73 74
58 58 58 58 58 58 58 57 57 57 56 56 56 56 55 55 55 55 55 55 55 55 56 56 57 60 60 62 83 84 81 77 78 77 73 78 78 71 71 65 72 70 63 67 69 71 69
58 57 57 57 57 57 57 57 57 57 57 56 56 55 55 55 55 55 54 54 54 55 56 57 59 62 57 80 81 77 80 77 80 79 76 77 77 71 68 71 67 62 62 54 66 69 70
57 57 57 56 56 56 56 56 57 57 56 55 55 55 55 54 54 54 54 54 55 56 57 59 58 60 58 71 72 78 79 73 76 76 76 77 73 64 66 57 54 57 49 53 58 68 67
57 57 56 56 56 56 56 56 56 56 55 55 55 54 54 54 54 53 53 54 58 58 59 67 67 58 65 66 73 75 78 75 69 69 68 66 63 56 57 53 43 49 51 54 55 63 65
56 56 56 56 56 55 56 56 55 55 54 54 54 54 54 53 54 53 54 67 62 58 62 61 63 62 68 74 76 71 75 71 69 64 54 62 53 48 53 57 57 57 55 54 60 66 63
56 56 56 56 55 55 56 56 55 54 54 54 53 53 53 53 53 53 57 60 57 56 46 61 63 64 69 70 59 68 74 62 61 53 59 55 50 57 60 60 58 56 53 53 59 63 60
55 55 55 55 55 56 56 55 54 54 53 53 53 53 53 53 53 53 62 59 67 63 48 57 66 64 65 67 59 63 69 64 58 53 55 50 55 62 59 56 54 55 53 52 51 58 60
54 54 55 55 55 55 55 54 53 53 53 53 52 52 52 52 50 63 60 65 66 62 41 53 57 62 65 64 57 70 71 64 59 52 54 53 60 57 56 55 56 48 59 57 53 50 42
53 53 54 54 54 54 53 53 53 53 53 52 52 52 52 53 54 60 61 65 65 57 31 56 58 70 67 58 60 62 73 65 53 53 53 49 53 53 51 54 60 53 60 56 54 49 48
53 53 53 53 53 53 52 52 52 52 52 52 52 52 52 57 57 62 64 62 58 37 32 51 58 55 54 57 57 61 62 67 64 55 55 53 60 57 56 59 60 59 56 54 53 49 37
52 52 53 52 52 52 52 52 52 52 51 52 52 52 52 58 53 62 60 55 40 34 55 48 48 52 50 48 51 54 52 50 47 39 40 46 50 57 60 53 55 55 47 33 31 34 33
52 52 52 52 52 52 51 52 51 51 51 51 51 51 56 60 60 59 56 46 32 47 47 51 49 47 43 49 49 49 47 44 51 44 35 33 34 50 57 53 44 47 48 36 28 31 37
51 51 51 51 51 52 51 51 51 51 51 51 51 53 56 57 59 58 48 35 40 43 47 43 44 41 42 47 47 45 44 44 49 44 30 32 37 55 57 53 48 46 41 50 39 42 34
51 51 51 51 51 51 51 51 51 51 51 51 49 54 54 58 59 52 43 37 43 49 48 45 35 41 35 39 39 40 41 48 46 44 45 37 27 48 53 54 49 49 53 40 42 28 28
51 51 52 51 51 51 51 51 51 51 51 51 48 48 53 59 56 47 35 42 44 50 48 42 39 37 38 36 38 37 38 45 41 44 45 43 35 38 44 41 43 49 42 45 44 42 30
51 51 51 51 51 51 51 51 50 50 50 48 51 40 56 58 42 46 41 43 44 46 50 47 46 42 38 38 36 36 36 43 48 46 36 42 34 31 37 50 52 56 48 45 36 37 44
51 51 51 51 51 50 50 50 50 50 50 50 48 49 57 54 35 40 45 44 46 45 46 45 42 44 45 39 32 39 41 49 44 40 36 36 34 28 33 41 53 50 52 50 44 46 35
51 50 50 51 51 50 50 50 50 50 50 48 46 36 48 51 46 40 38 40 40 49 46 46 43 45 40 36 40 35 39 46 44 40 43 37 32 29 26 36 48 44 49 47 44 37 38
49 50 50 50 50 50 50 50 50 50 50 47 46 40 46 37 41 41 39 37 37 36 44 45 41 42 38 33 36 37 39 37 41 42 38 35 30 32 33 35 46 42 42 39 39 44 39
50 50 50 50 50 50 50 50 50 50 49 48 38 43 48 42 42 37 39 37 37 38 37 36 35 39 38 33 37 34 38 37 33 40 36 37 33 35 32 42 46 38 38 41 48 47 48
50 50 50 50 50 50 50 50 49 49 49 47 53 53 47 43 42 40 39 39 38 38 40 43 39 36 36 37 41 41 43 44 43 38 35 34 33 39 35 47 46 37 45 48 44 43 43
50 50 50 50 50 50 50 49 49 49 49 48 51 51 43 39 44 44 44 45 42 40 31 39 42 37 44 47 44 46 45 45 44 43 46 34 35 43 35 40 27 42 52 49 39 38 39
50 50 50 50 49 50 50 49 49 49 49 49 51 48 43 36 46 46 44 44 46 43 38 35 42 44 46 40 35 36 35 36 42 47 46 45 43 39 35 32 35 39 43 42 40 31 36
49 50 50 49 49 49 49 49 49 49 49 50 50 52 45 38 40 47 44 45 41 40 43 40 50 53 42 35 33 29 31 34 31 39 49 49 48 42 40 33 27 32 40 49 48 26 35
49 49 49 49 49 49 49 49 49 49 49 49 47 52 47 37 48 47 41 40 47 44 41 45 44 45 49 36 32 31 34 43 30 33 35 38 39 35 35 33 31 34 42 49 30 26 33
49 49 49 48 49 49 49 49 49 49 49 49 45 53 46 38 45 49 49 44 46 45 37 43 42 43 39 34 35 34 34 37 36 39 36 32 29 30 34 29 25 35 40 30 31 34 34
48 48 48 48 48 48 48 48 49 49 49 49 44 50 50 41 44 48 49 52 51 49 44 44 41 40 39 35 36 36 34 37 34 29 41 29 33 30 30 27 33 34 31 33 35 32 32

GFSGBSN_sfc_temp_099.txt.gz
Temp
62 62 62 61 61 60 60 59 59 58 57 57 57 56 57 57 57 57 56 56 56 56 56 57 57 57 54 50 54 66 68 68 66 67 64 64 61 59 54 57 59 58 61 65 68 68 68
61 61 60 60 60 59 60 59 58 57 57 57 56 56 56 56 56 56 56 56 55 55 56 56 57 57 50 45 71 71 69 68 69 65 64 66 63 65 61 60 57 61 63 63 66 66 66
61 60 59 58 58 58 58 58 58 57 57 56 56 56 55 55 55 55 55 55 55 55 56 56 57 57 51 52 70 67 73 68 70 68 63 67 66 60 60 57 64 63 55 60 62 60 60
59 59 58 57 57 56 57 57 57 57 57 56 56 55 55 55 54 54 54 54 54 55 56 57 58 55 45 70 67 70 70 70 73 71 69 68 67 60 55 60 59 54 52 45 57 61 64
59 58 58 57 56 56 55 56 56 57 57 56 55 55 55 54 54 54 54 54 54 55 56 57 52 50 49 70 67 71 70 68 70 71 67 75 64 55 54 46 43 46 40 44 50 60 60
59 58 57 57 56 55 55 56 56 56 56 56 55 55 54 54 54 53 53 53 55 56 57 61 60 48 56 61 68 69 69 70 64 62 60 58 53 47 43 40 34 36 40 44 45 55 57
58 58 57 57 56 55 55 56 56 56 55 55 54 54 54 54 54 53 51 48 51 47 53 52 53 55 61 68 71 65 70 66 62 55 44 51 44 40 42 46 48 47 45 44 50 57 54
57 57 57 56 55 55 55 55 55 54 55 54 53 53 53 53 53 53 51 49 52 50 40 55 56 57 62 66 57 62 68 57 54 45 50 44 40 50 53 52 49 48 44 43 50 56 55
56 56 56 56 56 55 55 55 54 54 54 53 53 53 53 53 53 50 51 54 59 56 37 50 59 60 62 64 56 57 62 58 52 48 48 42 48 56 53 50 48 48 45 45 46 52 51
55 55 55 55 55 55 55 56 54 54 53 53 52 52 52 52 48 52 52 59 58 54 30 48 55 61 63 62 53 65 65 57 53 47 49 46 53 52 49 47 50 43 53 51 49 47 36
54 54 54 54 54 54 54 54 54 53 53 52 52 52 52 52 44 49 54 57 57 50 25 53 55 68 64 56 56 57 65 57 47 47 48 43 46 46 44 47 52 46 55 50 50 47 39
53 53 54 54 53 53 53 53 52 52 52 52 52 52 52 51 45 53 55 54 49 34 26 48 56 53 51 53 52 56 56 59 57 48 49 47 55 48 47 50 52 54 51 47 44 42 31
53 53 53 52 52 52 52 52 52 52 52 51 52 52 50 53 45 53 51 46 32 26 53 43 44 47 45 44 47 50 47 43 38 32 33 41 43 49 52 45 49 47 43 27 26 27 27
52 52 51 51 51 52 52 52 51 51 51 51 51 51 49 54 51 51 47 37 25 43 40 46 44 44 40 45 45 45 42 37 45 40 32 28 26 41 49 43 39 42 42 28 22 24 30
51 51 50 50 51 51 51 52 51 51 51 51 51 46 46 49 52 49 40 27 32 39 43 40 41 36 37 41 40 40 38 37 43 41 29 28 30 44 45 48 48 38 34 42 31 38 29
51 50 50 50 51 51 51 50 50 50 50 51 43 44 45 52 51 45 34 33 40 46 45 43 32 37 30 34 34 34 35 42 40 43 42 35 25 41 47 46 47 44 47 32 33 25 24
50 50 50 50 50 50 50 50 50 50 50 50 40 38 46 52 49 39 26 35 43 48 47 40 36 34 35 33 35 32 34 40 40 42 42 37 32 33 41 39 37 37 35 37 38 37 28
50 50 51 51 50 50 50 50 50 50 50 46 40 32 48 50 34 36 29 42 44 45 48 44 42 39 35 35 33 32 32 38 47 40 33 36 31 25 33 46 46 45 39 40 28 32 37
50 51 51 50 50 50 50 50 50 50 50 41 37 38 48 47 27 28 41 43 46 44 43 41 39 41 40 34 28 34 35 44 41 37 34 35 30 20 28 39 44 40 44 45 42 37 34
50 51 50 50 51 50 50 50 50 50 50 41 37 30 38 40 37 34 33 37 37 45 42 42 39 41 37 33 37 31 33 40 41 38 44 36 31 26 22 33 37 32 38 46 42 32 33
50 50 50 50 50 50 50 50 50 50 50 40 37 34 39 29 30 34 34 35 34 34 41 41 37 37 34 28 30 30 34 33 39 42 40 34 28 31 32 35 36 35 36 38 36 34 32
49 50 50 50 50 50 50 50 49 49 49 40 33 35 38 33 37 31 34 32 34 36 34 34 32 35 35 29 33 28 32 33 32 37 35 36 29 33 31 36 37 34 38 36 34 35 35
50 50 50 50 50 50 50 49 49 49 48 39 43 44 38 37 35 29 30 35 34 33 37 41 35 34 34 36 37 37 39 39 37 34 32 34 32 31 28 36 36 30 34 35 33 34 35
50 50 50 50 50 50 50 49 49 49 48 42 41 39 32 28 34 38 42 42 38 36 26 39 39 34 41 44 42 42 39 38 38 39 42 33 33 33 29 35 23 32 40 37 31 31 34
49 49 50 50 50 50 49 49 49 49 49 42 42 39 34 27 39 42 41 40 40 37 31 34 38 42 42 39 33 31 32 34 38 42 42 40 35 32 30 28 32 34 34 31 33 27 32
49 49 50 49 49 49 49 49 49 49 49 43 42 43 37 27 31 44 37 41 32 29 33 38 44 44 39 34 31 26 27 30 32 38 47 45 42 34 32 26 21 27 33 39 39 21 31
49 49 49 49 49 49 49 49 49 49 49 44 41 43 38 29 39 40 33 32 39 35 31 37 38 38 42 31 29 28 28 38 28 28 29 32 31 27 27 25 27 29 34 40 19 22 30
49 49 49 49 48 48 48 48 49 49 49 44 41 45 40 34 35 42 44 35 36 34 25 34 33 35 31 27 28 29 29 31 31 34 31 27 26 24 27 23 20 31 34 25 30 31 31
48 48 48 48 48 48 48 48 49 49 49 47 41 44 44 34 34 40 42 44 43 42 35 35 35 35 32 28 29 30 30 31 31 24 37 26 30 25 26 24 30 31 29 31 31 29 29

GFSGBSN_sfc_temp_102.txt.gz
Temp
63 63 62 62 61 61 61 60 59 58 58 58 57 57 57 57 57 57 56 56 56 56 56 57 57 58 52 48 51 66 67 67 65 65 61 59 56 53 49 52 54 52 56 59 61 62 62
62 62 62 61 61 60 60 60 59 58 57 57 57 56 56 56 56 56 56 56 56 55 56 56 57 57 47 43 67 68 66 64 67 63 61 60 59 59 55 54 52 58 57 58 60 59 61
62 61 61 60 60 59 59 58 58 58 57 57 57 56 56 56 56 56 55 55 55 55 56 56 57 55 48 49 63 62 66 65 65 65 61 63 62 55 55 52 58 58 50 54 57 55 56
62 61 61 59 58 58 57 57 57 57 57 57 57 56 55 55 55 55 54 54 54 55 56 56 57 52 43 64 59 62 64 66 68 67 65 66 64 57 53 56 54 49 48 39 50 54 56
61 61 60 58 58 57 56 56 56 56 57 57 56 55 55 54 54 54 54 54 54 55 56 57 49 47 45 66 62 69 66 64 65 65 62 72 62 54 51 43 38 40 38 40 46 53 53
61 60 59 59 58 57 56 56 55 56 56 56 56 55 54 54 54 53 53 53 54 54 56 59 57 46 54 59 66 67 66 66 61 59 58 55 50 44 40 37 30 31 35 36 39 50 51
61 60 59 58 57 57 57 56 56 55 55 56 55 54 54 54 54 53 49 46 47 45 49 46 48 49 59 63 67 64 66 62 59 54 43 47 39 34 39 42 45 43 41 38 44 51 49
60 59 59 58 57 57 56 55 54 54 55 55 54 53 53 53 53 53 47 47 50 48 39 52 52 53 59 61 54 59 63 54 52 44 47 42 36 44 48 47 45 43 39 39 45 50 49
60 59 58 57 57 56 56 55 54 55 54 54 53 53 53 53 53 49 47 50 56 53 36 48 55 55 57 60 53 54 58 54 49 45 45 39 44 52 49 45 43 43 40 41 41 48 50
58 57 57 57 56 55 55 55 54 54 54 53 53 52 52 52 48 47 48 55 55 52 33 46 52 59 62 61 51 62 60 53 48 43 45 43 49 48 45 43 45 37 47 46 45 42 34
58 57 56 55 54 54 54 54 54 54 53 52 52 52 52 52 42 45 52 53 52 49 27 51 53 66 62 54 53 55 60 53 43 44 42 40 43 41 41 43 48 41 48 45 45 40 35
56 55 55 54 54 54 53 53 53 53 52 52 52 52 52 48 43 47 51 50 49 33 28 47 52 48 47 49 50 52 52 55 52 44 45 43 48 45 43 48 47 49 44 44 45 36 26
56 55 54 53 53 53 53 52 52 52 52 52 51 52 49 51 43 49 47 46 33 27 48 40 40 45 43 41 45 45 42 39 34 30 31 39 40 45 48 40 44 42 36 26 21 24 25
54 54 53 53 53 52 52 52 51 51 51 51 51 50 48 50 47 48 46 37 27 40 38 45 42 42 38 40 40 40 37 32 40 36 29 25 25 38 44 40 35 36 34 27 19 22 29
54 53 53 52 51 51 51 51 51 51 51 51 50 42 41 45 50 47 40 24 31 38 42 38 41 34 34 38 36 36 33 33 38 38 27 27 28 42 43 45 41 37 32 40 31 34 29
53 51 50 50 50 50 50 50 50 50 50 50 41 42 43 49 50 44 34 33 38 45 45 42 32 36 28 32 31 31 32 39 37 40 39 34 23 38 42 44 44 40 46 28 29 21 22
50 50 50 49 49 49 50 50 50 50 50 50 41 37 45 49 47 39 27 34 41 48 47 40 36 33 33 31 32 29 33 38 38 40 40 36 30 31 37 37 36 37 33 36 35 32 26
49 49 49 49 50 50 50 50 50 50 50 46 39 32 46 48 34 34 30 41 45 44 46 42 40 38 33 32 30 30 30 35 41 38 31 34 29 24 30 41 45 42 36 37 26 31 34
49 49 49 50 50 50 50 50 50 50 50 41 37 37 46 45 25 27 39 42 45 41 40 39 37 38 37 31 25 31 33 41 41 36 33 35 27 21 25 36 41 36 37 38 38 34 32
49 49 50 50 50 50 50 50 50 50 50 42 36 27 35 38 35 34 32 35 36 43 41 40 38 38 33 30 34 28 31 38 40 37 44 38 29 26 22 31 36 32 34 37 38 30 29
49 50 50 50 50 50 50 50 50 50 49 41 33 30 38 27 30 33 33 34 33 33 39 39 35 35 31 27 29 28 32 30 35 40 39 34 28 30 30 33 34 34 34 34 33 33 29
49 50 50 50 50 50 50 50 49 49 49 38 31 34 37 32 35 31 33 32 32 35 33 32 31 34 32 28 30 26 31 30 30 36 34 36 28 31 28 34 34 31 33 33 33 32 31
50 50 50 50 50 50 49 49 49 49 47 38 40 41 36 35 32 29 29 34 33 32 36 38 35 32 32 36 39 38 37 37 37 32 31 31 30 30 27 33 33 27 28 29 29 31 31
50 50 50 50 50 50 49 49 49 49 47 40 39 38 31 28 32 34 39 38 36 34 24 38 37 34 38 44 43 41 36 36 35 36 38 31 31 32 28 31 20 28 33 34 29 29 31
50 50 50 50 50 49 49 49 49 49 49 40 39 37 32 27 35 38 39 37 38 35 29 29 37 40 41 38 32 30 32 33 37 37 37 36 33 30 28 26 27 31 31 28 29 24 29
49 49 50 49 49 49 49 49 49 49 49 41 39 40 36 29 30 40 35 36 30 26 30 34 41 41 37 34 31 25 26 30 29 34 43 38 38 31 30 24 20 26 30 36 36 18 29
49 49 49 49 49 49 49 49 49 49 49 41 39 41 36 27 34 37 31 31 36 31 28 32 34 36 37 27 24 24 27 34 26 27 28 30 30 25 27 24 26 27 32 39 20 20 29
49 49 49 48 48 48 48 48 49 49 49 42 38 41 36 25 32 39 41 33 33 31 23 32 31 32 30 25 27 26 28 30 29 31 30 27 24 23 25 22 20 28 32 25 27 29 28
48 48 48 48 48 48 48 48 48 48 49 46 36 41 41 32 32 38 40 42 41 40 33 32 34 31 29 27 29 29 27 29 28 24 35 24 28 24 25 22 28 29 27 29 31 28 28

GFSGBSN_sfc_temp_105.txt.gz
Temp
63 63 62 62 62 61 61 61 60 59 58 58 58 57 57 57 57 57 56 56 56 56 56 56 57 57 50 47 50 63 67 66 63 63 58 56 52 50 46 49 51 49 52 56 58 59 58
62 62 62 62 61 61 61 60 59 58 58 58 57 57 57 57 57 57 56 56 55 55 55 56 57 57 47 42 63 65 63 61 62 59 58 57 55 56 52 50 47 52 52 52 55 56 55
63 62 61 61 61 61 60 60 59 58 58 57 57 56 56 56 56 56 56 55 55 55 55 56 57 54 47 48 59 60 61 60 60 60 57 60 58 52 51 49 54 53 47 53 56 52 52
62 62 61 61 60 59 59 59 58 58 58 57 57 56 56 55 55 55 54 54 54 54 55 56 57 53 42 61 56 59 58 63 65 63 62 63 61 54 50 52 51 47 45 40 50 52 54
62 62 61 60 60 59 58 57 57 58 57 57 57 56 55 54 54 54 54 54 54 55 56 56 48 44 41 63 59 64 65 62 63 62 59 69 59 51 48 41 36 39 34 37 42 51 49
62 62 61 60 59 58 58 57 57 57 56 56 56 56 55 54 54 53 53 53 53 53 55 56 55 43 50 55 62 64 63 64 59 57 56 53 47 42 39 37 27 31 32 32 35 43 47
62 61 61 60 59 59 58 58 56 55 56 56 56 55 54 54 54 53 47 43 45 43 46 44 46 47 53 59 62 60 65 60 55 52 42 46 39 35 40 42 43 41 38 37 42 48 44
61 61 61 60 59 59 58 57 56 55 55 54 54 54 54 54 53 53 45 44 46 47 37 48 49 50 55 56 49 58 61 51 49 42 43 40 34 43 46 44 42 41 37 36 42 47 45
60 60 61 61 60 58 58 57 55 54 53 53 54 54 53 53 52 47 44 47 53 50 36 45 51 51 54 56 49 52 57 53 47 41 42 37 42 50 45 42 40 39 36 36 37 44 45
59 59 59 59 59 58 57 56 55 53 53 54 53 53 52 52 46 43 46 52 51 50 32 44 49 55 59 58 51 61 61 51 45 41 42 39 46 44 41 39 41 35 43 42 40 36 29
58 59 58 58 58 56 56 55 54 53 53 52 52 52 52 52 41 43 50 50 49 45 24 48 51 63 58 52 52 53 58 51 43 43 41 37 40 39 37 40 44 39 44 41 40 35 35
59 58 58 58 56 55 54 53 53 53 52 52 52 52 52 47 41 46 48 48 46 31 25 42 48 47 48 50 49 50 49 52 49 42 42 39 45 41 40 44 44 46 40 40 38 34 25
58 57 57 56 55 54 53 53 52 52 52 52 52 52 49 49 41 45 46 43 31 24 45 37 39 45 42 40 43 43 41 38 33 28 29 35 37 41 45 37 40 38 32 20 17 21 23
58 57 56 54 54 53 53 52 52 51 51 52 51 50 49 49 47 47 43 34 23 37 36 43 41 42 35 40 39 38 35 30 38 34 26 23 24 35 41 37 33 33 31 23 18 19 25
58 56 55 54 53 53 52 51 51 51 51 51 50 42 43 47 47 46 38 22 29 35 40 38 39 34 34 38 34 34 31 30 34 36 25 25 26 40 41 42 39 33 26 36 29 31 24
56 55 54 53 52 52 51 51 50 51 51 51 42 41 43 48 47 41 31 31 36 43 43 42 32 36 29 31 31 30 29 36 35 38 38 32 23 36 40 41 41 37 41 24 27 19 17
55 54 53 52 51 50 50 50 50 50 50 50 41 37 44 48 47 37 26 31 40 46 46 40 35 33 32 29 31 29 31 36 35 36 37 32 29 30 35 32 31 33 32 33 33 31 21
52 51 50 50 50 50 49 49 50 50 50 46 40 31 45 47 33 34 30 40 45 44 46 42 40 36 32 32 29 29 29 34 40 36 29 34 25 23 28 39 42 39 34 33 27 26 32
50 49 49 49 49 48 48 49 49 50 50 41 35 36 45 44 26 28 38 41 42 40 39 37 36 36 36 31 25 30 31 39 38 34 32 33 27 18 25 34 38 33 34 34 36 34 29
49 49 49 49 48 48 49 49 50 50 50 42 35 27 35 38 34 34 33 34 35 41 38 38 36 36 32 29 32 27 30 35 37 35 43 37 27 24 20 28 35 28 31 33 33 29 27
48 48 49 49 49 50 50 50 50 50 50 42 35 30 37 27 31 33 33 34 33 32 38 37 34 33 31 26 28 27 30 29 33 38 36 34 26 29 30 32 32 30 31 32 31 33 26
49 49 49 49 50 49 49 49 50 50 49 39 33 34 35 31 34 31 33 31 32 34 33 32 31 33 31 27 30 25 30 29 27 33 34 34 25 29 26 33 31 27 28 30 29 30 29
49 49 49 49 49 49 49 49 49 49 48 37 38 40 37 35 32 29 29 33 33 32 36 38 34 30 29 33 37 38 39 37 37 32 30 30 27 27 26 31 30 20 25 26 27 28 30
49 50 49 49 49 49 49 49 49 49 47 40 38 38 31 27 32 33 37 37 34 33 26 36 35 33 38 41 39 38 36 36 36 35 35 29 29 29 27 29 17 26 31 30 26 27 28
49 50 50 50 49 49 49 49 49 49 48 40 38 38 34 27 34 37 37 36 36 33 29 28 36 39 38 34 32 28 28 31 33 35 36 35 31 29 27 24 26 29 28 27 27 23 27
49 49 49 49 49 49 49 49 49 49 49 41 38 39 36 31 30 38 34 35 29 26 30 33 38 39 36 32 30 24 25 27 28 32 38 37 34 31 28 24 19 24 28 34 34 16 27
49 49 49 49 48 48 48 49 49 49 49 41 38 39 36 29 34 36 31 31 33 30 27 30 33 34 34 26 27 25 26 32 24 24 27 29 29 25 27 24 24 25 29 36 19 19 26
49 48 48 48 48 48 48 48 49 49 48 41 37 40 36 28 33 38 39 32 32 30 23 31 28 30 28 25 27 25 25 28 27 30 28 25 23 22 25 23 19 27 30 25 26 28 26
48 48 48 48 48 48 48 48 48 49 48 44 36 40 39 33 33 36 38 39 38 38 31 33 30 30 27 26 29 29 25 26 24 18 32 23 25 23 23 20 26 28 26 29 30 27 25

GFSGBSN_sfc_temp_108.txt.gz
Temp
63 63 63 62 62 62 62 61 60 59 59 59 58 58 58 58 57 57 57 56 56 56 56 56 57 57 50 46 51 60 66 66 61 59 56 55 51 49 44 45 47 45 48 51 54 55 54
63 63 62 62 62 62 62 61 60 59 58 58 57 57 57 57 57 57 56 56 55 55 55 56 57 57 45 42 59 63 61 60 59 57 56 55 54 54 48 47 44 48 48 49 50 53 52
63 62 62 61 61 61 61 60 60 59 58 58 57 57 57 56 56 56 55 55 55 55 55 55 56 54 44 48 57 57 59 56 59 59 55 56 55 50 49 47 50 49 44 46 49 46 48
63 63 62 61 61 60 60 60 59 59 58 58 58 57 56 55 55 55 54 54 54 54 55 55 56 51 41 59 53 57 56 59 61 61 59 60 59 53 49 50 48 43 40 35 43 49 50
62 62 62 61 60 59 59 59 59 59 58 57 57 57 55 54 54 54 54 54 54 55 55 55 48 43 41 61 56 61 60 60 61 60 57 66 56 48 46 39 34 35 30 31 38 44 45
63 61 61 61 61 60 59 59 58 57 57 57 57 56 55 54 54 53 53 53 53 53 54 55 54 41 49 52 59 61 58 60 56 55 53 51 44 39 38 36 26 29 30 28 30 42 44
62 63 62 61 61 60 60 59 58 57 57 56 56 55 55 54 54 53 47 46 43 41 44 45 45 45 50 56 59 56 59 56 54 50 42 43 37 32 39 40 40 37 34 33 37 43 40
61 61 61 62 61 61 61 59 58 57 56 56 55 54 53 53 54 53 45 45 45 45 38 46 47 47 52 54 47 53 57 50 47 40 41 37 33 42 43 42 40 37 34 32 38 43 41
59 60 60 61 61 61 60 59 57 56 56 55 54 54 52 52 52 48 44 47 51 49 35 44 48 48 51 52 46 48 55 50 44 41 40 36 41 46 43 38 37 36 33 34 36 39 40
59 58 59 60 60 60 59 59 58 56 55 54 53 51 50 51 46 45 44 51 51 48 32 41 45 51 54 53 47 55 57 52 46 42 43 40 45 44 40 37 40 31 42 40 38 33 28
58 58 58 58 59 59 58 58 57 55 54 52 52 51 49 50 45 43 48 50 50 46 25 45 47 58 55 49 48 49 54 50 43 43 43 38 39 38 35 38 42 36 43 39 37 31 30
56 58 58 58 58 57 57 56 55 54 53 53 51 51 51 47 42 47 49 47 48 32 25 40 46 44 44 46 45 46 46 50 47 41 40 39 43 42 40 43 43 44 38 37 35 29 22
56 56 58 57 57 57 57 55 53 53 53 52 50 50 50 49 43 48 48 45 32 26 43 35 37 41 39 37 39 42 39 35 32 30 29 35 36 38 42 34 38 37 30 18 16 18 20
56 56 57 57 57 56 55 54 53 52 51 51 51 50 49 48 47 47 45 35 23 35 35 41 39 38 33 37 36 37 36 32 37 32 26 24 22 33 39 36 30 29 30 23 15 18 22
56 57 56 57 56 55 54 53 52 51 50 50 50 43 43 46 46 46 37 24 28 32 39 37 38 32 31 37 35 34 31 30 36 35 25 25 25 37 41 42 38 30 26 34 27 29 22
58 57 56 56 55 54 53 52 51 50 50 50 41 41 42 45 47 42 32 31 32 40 41 40 32 34 28 30 31 30 29 36 35 38 37 32 22 36 39 39 38 34 38 23 27 13 15
56 55 56 55 54 52 52 51 50 50 51 50 42 37 42 47 46 36 22 30 39 45 44 39 34 32 32 29 30 29 30 36 36 36 37 31 28 29 33 30 28 31 29 30 30 27 19
55 55 55 53 52 51 51 50 50 50 50 47 39 27 43 45 32 31 28 38 45 42 45 41 39 37 32 31 29 29 29 34 38 37 28 32 25 23 27 37 39 36 31 30 21 25 30
55 55 53 52 51 50 50 50 49 50 50 40 35 35 44 44 27 27 36 39 41 39 38 37 34 36 35 31 26 30 31 38 37 33 31 33 26 17 25 30 37 33 33 34 32 30 28
53 52 51 51 50 49 49 49 50 50 49 42 34 27 36 39 33 33 33 35 34 41 38 38 36 36 32 29 32 27 30 34 35 34 42 36 27 22 19 28 33 27 31 32 30 25 25
50 50 49 49 49 48 48 48 49 49 50 43 34 28 37 28 30 33 34 35 33 32 37 37 33 33 31 26 28 27 29 27 32 37 34 31 25 26 28 32 32 29 27 28 30 32 26
48 48 48 48 48 48 48 49 49 49 50 40 32 33 35 32 35 33 34 32 32 34 33 31 31 32 31 27 29 25 29 28 26 31 32 35 25 27 24 31 30 25 26 26 26 28 25
48 47 47 47 47 48 49 49 50 50 48 38 38 40 37 34 32 30 30 32 33 32 35 36 33 31 29 32 36 36 39 35 35 32 30 29 27 25 23 28 28 22 24 25 25 26 28
47 48 48 48 49 49 49 49 49 50 47 41 38 38 32 28 32 33 36 36 33 32 25 35 35 31 36 38 37 35 34 34 35 35 34 29 28 28 25 26 17 24 31 30 25 25 27
48 49 49 49 49 49 49 49 49 49 48 39 36 37 33 25 34 36 36 34 34 33 29 29 35 37 36 33 32 28 28 30 32 34 34 33 30 26 25 23 23 27 27 26 26 22 26
49 49 49 49 49 49 49 49 49 49 48 39 37 37 36 32 31 39 34 34 30 26 30 32 36 37 34 30 30 20 20 26 28 32 36 35 33 29 28 24 18 23 27 32 32 16 26
48 48 48 48 48 48 48 49 49 49 49 41 37 37 37 29 34 36 32 31 33 30 28 30 32 32 33 25 21 24 24 31 24 24 27 28 28 25 27 23 23 25 27 32 20 18 25
48 48 48 48 48 48 48 48 49 49 48 41 36 38 36 29 33 37 38 32 31 29 24 30 27 29 27 24 26 24 24 24 27 28 26 24 22 21 25 23 19 27 30 25 24 26 25
48 47 47 48 48 48 48 48 48 48 48 44 35 38 38 34 33 36 37 38 36 36 31 32 29 29 26 26 29 26 26 28 23 18 30 23 24 22 21 19 25 27 26 28 29 25 24

GFSGBSN_sfc_temp_111.txt.gz
Temp
63 63 63 63 62 62 62 62 61 60 59 59 59 59 59 59 58 58 57 56 56 56 56 56 57 58 55 53 57 66 66 66 65 64 63 61 58 56 52 54 54 52 56 57 60 59 59
63 63 63 62 62 62 62 62 61 60 59 59 58 58 58 58 58 57 56 56 56 56 56 56 56 57 52 48 65 64 64 63 65 64 63 63 60 60 56 54 53 55 55 56 57 59 59
63 63 62 62 62 61 62 61 61 60 59 59 58 58 57 57 57 56 56 55 55 55 55 56 56 55 47 54 63 61 61 64 65 65 62 63 64 60 58 52 57 55 50 53 58 58 56
63 63 62 61 61 60 60 60 60 60 59 59 58 57 57 56 56 55 55 54 54 55 55 56 56 53 48 61 60 60 61 63 65 66 65 66 65 60 57 58 53 49 48 45 52 53 55
62 62 62 61 60 60 60 59 59 59 59 59 58 57 55 55 54 54 54 54 54 55 56 56 51 49 48 63 58 64 64 62 64 64 64 66 63 55 55 48 45 44 42 41 46 53 51
62 62 62 61 61 60 60 59 59 59 58 58 57 56 55 54 54 54 53 53 53 54 55 56 54 46 54 56 61 64 63 65 62 60 59 57 53 50 47 47 39 41 40 40 42 49 52
61 61 61 61 61 60 60 60 59 58 58 58 56 56 55 54 52 52 50 50 49 46 48 48 49 49 53 59 61 61 65 62 60 57 50 50 47 43 47 47 46 43 41 40 45 50 45
60 60 61 61 61 61 61 60 59 58 58 57 56 55 54 53 52 52 49 47 50 50 42 49 49 49 53 57 51 57 63 56 53 48 48 46 42 49 48 47 44 43 40 40 45 48 47
58 58 60 60 61 61 61 60 58 58 57 56 55 54 53 52 51 49 47 49 55 55 42 47 49 49 52 54 49 51 58 54 50 45 45 43 46 49 46 44 42 41 40 40 40 45 48
57 56 58 59 60 60 60 60 59 58 57 56 54 53 51 50 46 48 47 54 55 54 38 44 45 51 53 54 49 57 59 55 49 44 44 44 48 46 44 42 44 37 45 44 41 39 34
56 56 56 57 58 58 58 58 58 58 56 55 53 52 50 51 43 44 48 52 53 50 25 46 47 61 56 50 51 52 57 55 46 45 46 42 42 42 40 42 45 41 46 42 42 38 36
56 56 56 56 57 57 57 57 57 56 55 54 52 51 50 46 45 50 51 53 51 36 25 41 47 46 46 47 47 50 50 54 51 45 44 43 47 46 45 47 46 45 42 41 40 36 27
55 55 56 56 56 57 57 57 56 55 54 53 51 51 48 49 42 49 50 47 33 28 45 37 40 43 41 40 41 43 41 40 39 35 34 38 40 44 46 40 42 41 36 27 24 24 25
55 55 55 56 56 56 57 56 56 54 53 52 51 49 49 48 49 49 47 37 27 37 38 41 41 40 36 39 38 39 37 35 39 37 31 29 29 39 42 40 36 36 34 27 18 22 28
54 55 55 55 55 56 56 56 54 53 51 51 49 43 43 46 48 49 41 29 32 37 41 39 39 35 33 37 37 37 35 34 38 39 31 29 28 41 42 43 42 34 29 39 30 32 26
54 54 55 55 55 55 56 55 53 52 51 49 40 41 40 46 48 45 35 34 36 43 43 42 35 36 30 33 33 33 33 38 37 41 41 34 25 38 40 43 42 39 42 28 30 18 18
53 54 54 54 55 55 56 53 51 50 50 50 40 34 43 47 48 39 27 33 39 45 45 40 36 33 34 32 34 32 34 38 39 38 41 37 32 32 37 34 33 33 32 34 34 31 24
52 53 53 54 55 56 54 52 51 50 50 47 39 30 44 46 35 34 31 37 44 42 45 41 41 38 34 34 32 32 32 36 41 40 33 37 30 25 30 40 41 38 35 31 25 25 29
52 52 53 55 55 55 52 51 50 50 51 43 34 34 44 43 27 29 36 39 42 40 40 38 36 38 38 33 29 33 34 39 40 38 35 36 29 22 27 31 38 34 36 34 32 31 25
52 53 54 55 55 52 51 50 49 51 53 45 35 28 35 39 36 36 35 35 34 41 39 40 37 38 34 32 34 30 32 37 38 37 42 39 30 25 24 31 35 28 31 33 30 26 29
52 53 54 54 53 51 50 50 50 51 50 44 36 31 38 29 31 34 36 36 33 32 38 39 34 35 33 28 29 29 32 32 34 38 38 34 26 27 29 33 33 29 28 28 24 31 28
53 53 53 52 51 50 50 49 50 50 50 40 32 33 37 36 35 33 36 34 34 34 35 33 33 34 34 30 33 28 31 31 30 35 33 34 27 26 23 33 31 25 27 27 25 27 25
52 51 50 50 49 49 49 49 49 49 48 39 39 42 38 36 35 34 33 34 34 34 37 39 36 34 32 34 38 39 41 39 38 34 32 30 28 27 24 29 28 23 25 25 25 27 28
49 48 48 48 48 49 48 49 50 49 47 43 41 40 34 30 36 36 36 37 34 35 30 37 37 35 38 42 40 38 36 36 37 36 37 30 29 29 26 26 19 25 30 30 26 26 29
47 47 48 47 47 47 47 48 49 49 48 42 40 40 36 30 36 36 37 35 35 35 33 33 37 40 40 39 33 29 30 30 31 34 33 32 31 27 25 24 24 26 28 27 26 23 27
46 47 47 47 47 47 49 49 49 50 48 41 38 40 38 35 34 40 35 37 33 31 33 35 39 41 39 34 31 24 24 27 28 31 36 34 32 29 28 23 20 26 29 32 32 22 27
47 48 48 49 49 49 49 49 49 49 48 42 37 38 39 31 36 39 35 34 35 34 32 34 35 36 38 31 28 27 27 33 26 25 26 29 29 27 28 25 24 27 29 33 22 22 26
48 48 48 48 49 49 49 49 49 48 47 42 37 38 39 32 35 40 40 35 34 35 31 33 33 34 32 29 30 28 26 29 29 29 27 25 23 24 26 24 20 28 30 26 26 27 26
47 48 48 48 48 48 48 49 49 49 48 44 37 40 40 36 36 38 40 41 42 40 35 34 34 32 33 31 32 31 28 31 27 24 32 25 25 23 23 22 26 28 27 30 31 27 25

GFSGBSN_sfc_temp_114.txt.gz
Temp
63 63 63 63 62 62 63 62 61 60 60 60 60 59 60 60 59 58 57 56 56 57 57 57 57 58 65 65 67 75 67 68 74 74 73 71 69 68 63 65 65 61 65 67 68 68 68
62 62 62 62 62 62 63 62 61 60 59 59 59 59 59 59 59 58 57 56 56 56 56 56 57 56 61 57 74 74 73 72 74 74 72 72 70 71 65 64 62 64 63 64 66 67 69
62 62 62 61 61 61 62 61 61 60 60 59 59 58 58 58 58 57 57 56 55 55 56 56 56 61 58 62 74 75 71 73 75 74 71 73 73 68 67 62 65 63 57 63 65 67 64
61 61 62 61 60 60 60 60 60 60 60 59 59 58 57 57 57 56 56 55 55 55 56 56 56 60 57 71 74 70 75 72 75 75 73 74 74 69 65 65 62 58 58 54 62 61 63
60 61 61 61 60 60 60 59 59 60 60 59 58 58 56 56 55 55 55 54 55 56 56 56 57 56 57 68 66 73 75 70 73 73 72 72 71 65 63 59 57 57 53 54 56 62 60
61 60 60 61 60 60 60 59 59 59 59 58 58 57 56 54 54 54 53 54 55 56 60 63 62 52 63 63 68 70 72 72 69 68 65 65 65 59 60 57 49 53 51 55 53 59 60
60 60 60 60 60 60 61 60 59 58 58 58 57 56 55 54 53 52 55 56 57 55 56 59 59 58 62 68 69 69 72 69 69 65 57 61 56 52 58 59 57 54 52 51 57 61 56
58 59 59 60 60 61 61 61 59 58 58 58 57 56 54 53 53 52 57 50 53 54 52 61 60 61 64 64 59 66 71 62 60 56 61 55 51 60 59 57 53 53 50 51 56 56 55
57 57 58 58 59 60 61 61 59 58 58 57 56 55 54 53 53 51 52 53 62 59 51 56 61 58 60 61 59 63 66 64 58 55 56 52 57 56 55 53 50 51 49 50 49 54 57
56 56 57 57 58 58 59 59 59 58 57 56 55 54 52 52 49 50 50 56 62 57 37 50 53 57 59 62 55 65 66 63 58 52 55 53 59 53 52 50 52 46 55 51 49 47 44
56 56 56 56 56 56 56 57 58 58 57 56 54 53 51 55 47 48 57 54 56 53 29 52 53 67 62 57 58 57 64 61 54 53 52 49 49 49 48 50 52 48 51 49 48 45 45
55 55 56 56 56 56 56 56 56 56 56 55 53 52 51 48 53 53 51 56 53 38 31 45 54 52 53 54 54 57 58 62 59 53 53 53 55 53 53 52 52 53 48 49 49 45 35
54 54 55 56 56 56 56 56 56 56 56 54 52 52 52 51 45 52 52 48 36 35 51 45 47 51 52 48 49 51 51 50 48 42 43 48 49 53 52 46 51 49 44 36 34 33 34
54 54 54 55 55 55 55 55 56 56 54 53 51 50 48 49 50 49 49 38 28 42 45 48 48 49 46 47 45 45 45 45 48 47 44 41 38 46 49 47 45 44 43 36 27 32 38
53 53 54 54 55 55 55 55 55 55 53 51 49 45 44 48 49 53 41 28 42 45 52 47 46 44 42 44 45 44 42 45 48 48 39 38 37 47 47 48 46 42 36 47 36 38 32
53 53 53 54 54 54 55 55 55 54 51 50 43 41 42 46 50 48 36 36 45 49 50 51 43 47 42 42 41 41 43 46 43 47 48 41 32 44 46 48 49 44 48 32 35 22 24
52 52 53 53 54 54 54 55 55 52 51 51 41 37 42 49 50 39 31 37 46 51 51 47 45 41 44 40 42 41 41 44 45 45 47 44 37 37 41 39 40 40 37 39 40 36 28
51 51 52 53 53 54 54 54 54 51 51 48 41 31 42 47 35 36 37 45 48 49 51 47 48 45 44 43 40 39 38 42 48 46 38 44 36 32 37 45 47 46 42 41 30 30 36
51 51 51 52 53 53 54 54 52 51 53 44 36 34 43 43 31 34 44 44 48 47 47 46 44 46 44 40 36 40 39 44 45 44 41 42 36 29 32 34 42 35 40 42 38 34 30
50 51 51 52 52 53 53 54 51 51 54 44 37 31 35 37 43 42 41 42 41 49 47 46 42 44 41 40 42 36 37 41 43 43 43 43 36 29 31 36 40 33 35 37 33 29 33
50 50 51 52 53 53 53 54 51 52 53 44 41 36 43 31 35 42 44 44 41 39 45 45 39 42 42 36 37 35 39 38 40 41 43 39 30 33 33 38 39 34 33 35 28 31 26
49 50 50 51 52 53 53 53 51 53 52 42 37 42 46 42 43 40 42 41 40 39 39 40 41 43 43 37 39 35 38 38 36 42 40 41 30 31 29 38 36 29 29 32 28 28 27
48 48 49 51 52 53 54 51 51 51 50 41 47 55 50 41 42 39 40 41 40 39 42 47 45 41 38 42 46 47 48 45 44 39 35 33 31 29 27 33 31 25 26 27 27 30 29
48 49 50 51 52 53 51 50 51 50 49 47 52 54 45 35 41 41 43 43 42 43 34 43 45 42 45 50 48 46 45 44 43 42 42 32 30 33 30 29 22 26 32 33 30 29 32
51 51 52 52 53 50 50 49 49 49 48 46 51 52 44 34 41 42 43 43 45 43 38 38 44 47 50 46 38 34 32 31 34 38 38 34 32 30 28 30 28 29 31 31 28 26 33
51 52 52 50 49 49 48 48 48 48 49 49 47 53 50 37 37 47 45 45 41 40 39 39 45 49 47 43 36 29 29 32 32 31 36 35 33 31 33 28 24 31 34 37 37 26 32
48 48 48 48 48 48 48 48 48 48 48 50 43 47 52 39 46 49 44 43 48 45 42 41 42 42 46 39 33 34 33 39 32 31 31 33 31 29 32 31 31 32 34 38 25 25 32
46 46 47 47 47 47 47 48 48 49 49 52 44 47 50 42 43 47 47 44 44 47 40 42 41 40 40 36 39 38 33 34 34 35 31 30 30 31 33 30 26 33 34 29 29 32 31
47 47 47 47 47 48 48 48 48 48 48 51 45 50 54 47 41 47 46 48 51 51 46 44 43 42 44 43 43 39 31 33 33 29 36 28 32 33 29 28 30 32 31 36 36 32 32

GFSGBSN_sfc_temp_120.txt.gz
Temp
60 61 61 61 63 62 63 63 61 61 60 60 60 60 61 61 61 60 59 59 58 58 58 58 58 59 63 65 71 74 67 69 76 78 76 76 72 72 66 71 74 70 73 75 76 76 75
60 60 61 61 61 61 62 62 61 60 59 59 59 59 60 60 60 59 59 58 57 57 57 57 58 57 63 57 82 82 80 79 79 79 77 77 74 76 70 69 68 72 72 72 73 72 73
60 60 60 60 60 60 61 60 60 60 59 59 59 58 59 59 59 59 58 58 57 57 57 57 58 61 60 63 83 83 80 78 81 80 75 80 79 72 72 66 74 70 64 68 69 72 71
61 61 61 60 60 59 60 59 59 59 59 59 59 58 58 58 58 57 57 56 56 56 57 57 58 62 56 79 82 78 80 77 80 81 78 80 79 72 68 72 68 63 64 56 68 73 72
60 60 60 60 59 59 59 59 59 59 59 59 59 58 57 56 56 55 55 55 56 57 57 58 58 60 59 72 72 79 80 74 78 78 78 80 75 66 67 60 56 61 52 57 64 73 70
60 60 60 59 59 59 59 59 59 59 59 59 59 58 57 56 55 54 54 54 57 57 60 66 67 57 66 68 76 77 81 78 73 72 69 68 65 59 61 57 46 54 56 60 59 69 69
59 59 59 59 59 60 60 60 59 58 58 59 58 58 57 55 54 53 52 53 52 51 60 61 65 65 70 79 78 74 79 73 72 68 57 64 55 51 58 63 63 61 59 57 62 67 63
58 58 58 59 59 59 60 60 59 58 58 58 58 57 56 55 54 53 55 50 58 58 51 66 65 67 73 76 66 71 79 65 63 56 62 58 52 62 65 64 61 60 56 54 59 65 63
57 57 57 57 58 59 59 59 58 58 58 57 57 57 55 54 53 52 53 55 69 67 53 62 70 69 71 72 64 66 73 67 61 58 58 54 60 68 63 60 56 57 54 54 54 60 62
56 56 56 57 57 57 58 58 58 58 57 57 57 55 53 52 50 55 52 63 70 66 48 57 64 66 71 69 59 72 74 68 62 56 59 58 65 61 60 57 59 50 60 58 55 51 43
55 56 56 56 56 56 56 56 57 57 57 57 55 53 52 56 55 51 61 67 66 59 33 63 61 74 69 61 64 65 74 68 57 58 59 53 57 57 55 55 59 54 60 56 54 49 47
55 55 55 55 55 55 56 56 56 56 56 56 54 53 53 52 54 61 67 60 59 41 32 56 61 57 57 60 63 65 63 67 67 58 59 58 67 62 59 61 60 61 54 53 52 48 36
54 54 55 54 55 55 55 55 55 56 56 56 54 53 54 58 50 61 59 51 36 34 59 54 55 58 57 56 58 59 56 54 51 45 46 55 56 62 63 53 57 56 47 34 33 35 34
54 54 53 54 54 54 54 55 55 55 55 55 53 52 54 58 63 58 52 41 31 48 50 61 58 58 52 58 56 56 54 51 57 55 49 43 41 56 61 54 49 49 47 36 26 29 35
54 54 53 53 54 54 54 54 55 55 55 54 53 48 47 49 57 57 44 33 40 49 58 58 56 51 50 56 55 54 52 51 57 59 45 43 44 58 57 57 54 46 41 51 39 41 33
53 53 53 53 53 53 53 54 54 55 55 53 46 44 43 50 53 48 39 36 48 58 60 59 48 53 47 52 48 49 50 57 54 58 57 48 37 52 54 58 55 49 52 36 39 24 23
52 52 52 52 52 53 53 53 54 54 54 53 46 39 44 48 48 40 33 39 50 60 61 55 53 51 53 51 54 49 50 53 55 53 55 51 45 43 51 47 45 46 42 42 41 36 26
51 51 51 51 52 52 52 53 53 54 53 50 43 34 45 48 34 34 36 48 52 55 60 57 57 54 53 53 51 51 48 53 57 55 45 51 43 34 41 53 55 51 45 44 31 29 36
50 50 51 51 51 51 52 52 53 53 52 47 36 35 44 45 31 33 41 47 52 54 56 54 53 55 57 52 45 50 51 52 54 51 46 49 39 30 35 43 49 44 45 46 44 38 31
48 49 50 51 51 51 52 52 52 53 52 46 37 30 33 36 39 39 40 45 46 57 56 57 54 56 53 49 53 45 48 49 50 49 47 46 39 32 28 34 40 33 36 44 42 32 34
48 49 50 50 50 51 51 51 52 53 52 47 39 37 43 29 33 37 43 47 45 45 55 57 52 52 49 43 46 45 48 45 47 48 47 44 33 34 37 40 41 39 38 41 36 39 31
48 48 49 49 50 50 50 51 52 52 52 44 36 46 47 48 43 36 36 40 45 50 51 49 48 51 51 45 47 42 47 46 39 46 42 45 32 34 29 39 39 35 38 40 37 37 34
49 49 49 49 49 50 50 50 51 52 51 43 48 58 52 46 42 35 38 43 47 50 54 55 52 50 47 49 53 54 54 53 49 43 40 38 33 30 27 40 38 30 34 36 38 39 38
48 48 49 49 50 50 50 50 51 52 51 48 54 54 44 42 42 41 44 47 47 50 38 53 54 49 52 59 57 54 52 51 50 48 48 35 32 34 29 34 23 31 39 41 37 36 36
47 48 49 49 49 50 50 50 50 51 52 48 54 50 47 42 47 46 45 47 51 50 47 47 51 54 56 52 43 38 37 39 42 45 44 41 36 30 28 31 32 32 35 35 31 30 39
47 48 49 49 49 49 50 50 50 51 52 48 52 54 53 45 46 51 48 51 47 42 45 47 52 56 52 45 40 31 29 34 34 37 46 41 39 32 32 26 24 33 41 45 42 27 39
47 48 48 49 49 49 49 50 50 51 52 48 45 48 54 44 54 54 50 49 54 48 43 44 45 45 51 41 35 32 33 43 33 31 31 31 31 29 30 27 31 42 43 46 27 28 40
47 48 48 48 49 49 49 50 50 51 52 49 45 51 46 46 51 55 59 51 51 47 39 43 41 44 41 37 36 37 37 35 38 41 36 33 30 31 32 28 27 43 41 32 34 41 40
47 47 48 48 49 49 49 50 50 51 52 50 44 51 51 47 48 54 54 55 54 55 49 47 46 45 45 41 43 41 34 39 40 33 47 34 38 32 29 29 35 38 37 41 43 38 36

GFSGBSN_sfc_temp_123.txt.gz
Temp
59 60 60 60 61 61 62 62 61 60 60 60 60 60 61 61 61 60 59 58 58 58 58 58 59 59 56 57 62 69 67 68 70 72 69 68 65 62 58 59 61 58 61 66 67 65 64
59 59 60 60 59 60 61 61 61 60 60 60 59 59 60 60 60 60 59 58 58 57 57 58 58 58 55 52 73 71 70 71 71 71 70 69 66 68 62 61 57 63 63 62 65 64 64
61 60 60 60 60 60 60 60 60 60 59 59 59 59 58 59 59 58 58 58 58 57 57 58 58 59 54 55 72 69 75 69 72 72 69 73 72 64 63 58 66 63 56 59 61 64 60
60 60 60 60 59 59 59 59 59 60 59 59 59 58 58 58 58 57 57 57 55 56 57 58 58 55 49 73 67 72 70 70 73 74 72 73 73 66 60 63 60 55 54 46 59 63 65
59 60 60 60 59 59 59 59 59 59 59 59 59 58 57 57 57 56 56 55 55 55 57 58 53 52 51 72 68 73 71 69 70 72 71 78 69 59 60 51 48 51 42 48 54 64 60
60 59 59 59 58 59 59 59 58 58 59 58 58 58 57 57 56 55 54 54 56 55 59 62 61 49 59 64 72 74 72 73 67 66 64 61 55 49 48 45 35 43 46 49 49 58 56
59 59 58 59 58 59 59 59 59 58 58 58 58 58 57 56 55 53 51 51 48 47 52 52 56 56 66 72 74 69 73 69 66 59 49 55 44 40 46 51 53 53 51 48 52 59 56
58 58 58 58 58 58 59 59 59 58 58 58 58 58 57 56 54 53 52 50 53 55 44 59 59 61 67 71 62 67 72 60 57 48 53 49 43 52 57 57 55 52 48 47 53 59 56
57 57 57 58 58 58 58 58 58 58 57 57 57 57 57 55 53 51 51 54 62 60 43 55 60 61 62 65 59 61 66 61 55 50 50 46 52 61 58 55 53 50 48 47 48 52 50
56 56 57 57 57 57 57 57 57 57 57 56 56 56 54 53 50 51 51 58 61 57 35 49 58 64 67 67 57 67 69 62 55 50 52 50 58 57 54 51 53 44 53 53 50 43 34
55 55 55 56 56 56 56 56 56 56 56 56 56 54 52 56 51 49 56 60 57 52 24 58 58 69 66 59 59 60 68 60 51 52 52 47 51 50 49 51 55 47 54 49 47 40 38
55 55 55 55 55 55 55 55 55 56 56 56 55 53 53 52 51 53 60 58 55 35 26 52 57 55 54 57 58 59 59 61 59 52 53 51 58 54 52 57 54 55 49 46 43 37 28
55 54 54 54 55 55 55 55 55 55 55 55 54 53 53 56 49 58 58 52 35 29 55 50 49 54 52 51 52 54 51 47 42 37 37 47 50 55 59 48 51 47 39 24 23 24 26
54 54 54 54 54 54 54 54 54 54 55 55 54 53 53 54 55 55 51 40 29 42 46 57 56 53 47 53 51 52 48 42 49 47 40 35 32 50 55 49 44 43 40 28 22 21 27
54 53 53 54 53 54 54 54 54 54 54 54 54 50 47 50 53 53 43 32 34 44 53 52 54 47 46 52 50 49 45 44 49 50 37 37 39 51 54 53 49 42 33 45 34 34 28
53 53 53 53 53 53 53 53 54 53 54 54 47 44 44 49 50 46 39 37 41 52 56 55 45 48 42 46 45 44 44 51 50 52 50 42 31 47 51 52 49 44 47 28 28 21 20
52 52 52 52 53 53 53 53 53 53 53 53 45 40 44 49 49 39 32 37 46 54 56 52 49 47 48 46 46 42 45 49 51 48 49 44 37 37 46 41 39 40 34 37 34 30 20
51 51 51 51 52 52 52 53 53 53 53 50 43 35 45 49 34 33 33 40 49 51 55 52 51 49 46 47 44 44 44 49 52 49 41 43 36 26 35 46 49 44 40 38 22 26 30
51 51 51 51 51 51 52 52 52 53 53 46 39 35 44 44 31 31 37 42 46 48 49 47 48 51 49 43 37 44 43 48 49 46 41 42 32 22 28 35 42 36 39 39 37 32 28
50 50 50 50 51 51 51 52 52 52 53 45 36 29 34 38 37 36 37 38 40 50 49 49 49 51 45 42 46 40 40 45 46 44 48 43 34 27 23 29 35 30 37 39 35 26 25
49 49 49 50 50 50 51 51 51 52 52 45 38 33 36 28 31 35 41 41 39 40 50 51 47 47 43 37 38 37 41 39 43 45 43 37 28 26 31 37 37 34 33 36 29 33 24
49 49 49 49 49 49 50 51 51 52 52 43 35 35 37 34 38 35 36 37 39 43 45 45 43 47 45 38 40 37 41 36 34 41 38 38 25 23 19 35 35 30 33 34 31 32 26
48 48 49 48 49 49 49 50 51 51 50 40 43 46 41 38 35 33 35 37 39 43 46 50 46 44 41 44 48 46 46 46 43 37 33 31 25 19 19 34 35 24 28 30 33 36 35
49 49 49 49 49 49 49 49 50 51 50 44 45 45 37 31 35 35 39 39 40 44 36 48 49 42 46 51 49 48 46 47 44 42 41 28 26 27 22 26 18 26 37 37 33 36 33
48 48 49 49 49 49 49 49 49 51 51 44 46 43 38 32 41 40 40 39 43 44 39 42 49 48 49 47 36 33 31 35 40 41 38 36 29 22 20 22 28 30 33 33 30 31 36
47 48 48 48 48 48 49 49 49 50 51 47 44 45 41 34 35 47 40 43 37 39 38 41 46 47 46 39 33 27 25 31 29 35 43 37 34 25 26 23 21 28 39 43 40 24 38
47 47 48 48 48 48 49 49 49 50 51 47 44 47 42 37 42 45 41 39 43 38 36 38 39 40 44 35 30 28 29 40 29 28 29 29 29 26 25 24 28 37 41 44 24 25 37
47 47 47 47 47 48 49 49 49 50 51 47 44 47 44 37 39 44 47 43 43 42 35 37 36 37 36 32 32 31 29 31 31 35 31 29 24 24 27 25 23 39 39 30 31 34 36
46 47 47 47 47 48 49 49 49 50 50 49 41 48 49 40 39 46 46 47 53 49 40 43 40 40 37 35 35 33 29 30 31 28 41 29 31 26 28 24 31 34 31 36 36 31 30

GFSGBSN_sfc_temp_126.txt.gz
Temp
59 59 60 60 60 60 62 62 61 60 60 60 60 60 61 61 61 60 59 59 58 58 58 59 59 59 56 56 60 69 68 68 67 68 65 63 60 58 53 56 58 54 57 61 63 61 60
59 59 59 59 59 59 60 60 60 60 59 59 59 59 60 60 60 60 59 58 58 58 58 58 59 59 54 50 69 70 67 67 67 65 65 63 62 64 59 57 52 58 58 59 61 61 58
59 59 59 59 59 59 59 59 59 59 59 59 59 59 59 59 59 59 59 58 58 57 57 58 59 58 53 56 67 65 70 66 67 66 63 66 66 61 60 57 61 60 54 57 60 58 58
60 60 60 59 59 59 59 59 59 59 59 59 59 58 58 58 58 58 58 57 57 57 57 58 58 53 48 68 64 68 67 67 70 70 67 68 67 61 56 60 58 53 51 44 57 59 62
60 59 59 59 59 59 58 59 59 59 59 59 59 58 57 57 57 57 56 56 56 56 56 57 51 50 48 68 65 69 68 66 67 68 67 74 63 55 56 47 43 47 39 46 52 61 58
59 59 59 59 59 58 58 58 58 58 58 58 58 58 58 56 56 56 55 55 55 55 58 60 59 48 55 62 68 71 67 69 63 62 61 58 52 46 45 41 34 39 41 39 43 55 52
59 59 58 58 58 58 59 59 58 58 58 58 58 58 58 57 56 54 52 51 50 49 49 52 53 54 63 68 71 67 70 65 62 55 47 51 43 39 43 46 48 47 45 42 46 54 51
58 58 58 58 58 58 58 59 58 57 57 58 58 58 58 57 55 54 53 50 55 56 45 55 56 57 63 66 58 64 69 58 54 46 49 44 39 50 52 52 49 47 44 43 48 54 51
57 57 58 58 58 58 58 58 57 57 57 57 57 57 57 55 54 52 52 53 60 61 45 52 57 57 59 61 55 58 63 58 52 47 47 41 48 56 53 49 47 47 44 43 43 47 46
56 56 57 58 57 57 57 56 57 57 56 56 56 56 54 53 51 51 50 59 60 57 35 45 51 58 61 61 53 65 65 59 52 48 48 46 54 52 50 48 49 41 50 48 45 40 31
56 56 56 56 57 57 56 56 56 56 56 56 56 54 53 56 50 49 54 56 55 52 23 53 54 66 63 56 57 57 64 58 50 49 49 44 46 46 45 48 51 45 50 46 43 36 34
55 55 56 56 55 55 56 55 55 55 55 55 55 54 53 51 50 52 58 56 54 34 24 47 54 53 53 55 55 56 56 59 57 50 49 48 52 50 49 53 52 52 45 42 39 35 26
54 55 55 55 55 55 55 54 54 55 55 55 54 54 53 55 48 56 54 48 35 28 50 46 47 51 49 48 50 51 49 45 41 36 35 43 46 52 53 44 49 45 36 24 23 23 24
54 54 54 54 54 54 55 54 54 54 54 55 54 53 53 53 52 55 49 40 29 39 42 54 51 49 44 48 48 48 45 40 45 42 36 33 31 44 51 45 42 40 38 27 22 22 24
54 54 54 54 54 54 54 54 54 54 54 54 54 50 48 51 52 50 43 31 32 39 49 48 51 42 42 48 46 45 42 40 46 45 36 34 36 47 50 50 47 40 32 41 31 30 24
53 53 53 53 53 53 53 54 54 54 54 54 44 46 45 50 51 47 39 36 37 49 52 50 41 47 38 43 42 42 41 47 46 49 48 41 31 43 47 49 47 43 45 29 28 22 20
52 52 53 53 53 53 53 53 53 53 53 52 42 41 44 50 49 41 32 35 44 52 52 47 44 43 45 42 44 40 42 47 48 46 47 42 36 36 43 39 37 37 32 34 33 30 21
51 51 52 52 52 53 52 52 53 53 53 50 42 34 45 49 35 33 32 38 47 48 52 49 49 47 44 45 43 41 41 46 49 47 40 41 33 27 34 43 45 40 37 35 24 27 27
50 50 50 51 51 51 52 52 52 52 52 44 38 36 45 45 32 31 35 41 44 46 47 46 45 48 46 41 36 42 42 45 46 43 39 41 31 22 28 33 39 34 36 37 34 29 25
50 50 50 51 51 51 51 51 52 52 52 45 36 30 35 38 36 37 34 36 37 47 45 47 46 47 43 41 44 39 38 43 43 42 47 42 32 27 25 29 32 28 34 35 31 21 25
49 50 50 50 50 50 51 51 51 52 51 44 37 32 35 30 32 36 38 38 36 38 46 47 43 43 40 36 39 38 38 36 41 45 41 36 29 24 30 34 35 31 31 33 26 32 24
49 49 49 49 49 50 50 51 51 51 51 41 33 33 34 31 38 35 37 36 36 39 40 41 40 44 43 38 40 35 35 34 33 38 35 35 25 21 15 34 32 27 32 32 31 31 25
49 49 49 49 49 50 50 50 50 51 50 38 41 40 37 34 34 33 34 36 37 40 42 46 42 41 40 43 45 44 44 42 40 35 32 29 24 18 16 32 31 24 27 28 27 32 33
48 49 49 49 49 49 49 49 49 50 50 41 40 41 35 29 33 34 38 38 38 40 36 43 45 40 45 48 46 45 44 42 40 38 38 27 26 25 22 24 16 28 35 35 32 33 32
48 48 49 49 49 49 49 49 49 50 51 44 41 41 36 29 36 37 37 38 39 41 36 38 44 47 48 44 35 31 28 33 36 38 35 35 28 22 19 22 27 30 33 31 29 29 33
47 48 48 48 48 48 49 49 49 49 50 45 42 44 40 34 33 43 37 38 33 33 37 38 47 47 43 37 31 25 23 27 29 32 39 34 33 26 23 21 18 28 36 40 38 20 34
47 47 47 48 48 48 48 49 49 49 50 45 40 45 40 35 38 42 36 36 39 35 33 37 39 41 43 32 28 27 26 36 28 27 28 29 28 25 25 23 27 36 39 41 20 24 34
46 47 47 47 48 48 48 49 49 49 50 45 42 45 40 37 36 41 43 39 38 37 31 35 36 37 32 30 29 29 28 32 32 35 31 29 26 25 27 23 21 36 38 28 30 32 34
46 46 46 47 47 48 48 49 49 49 50 48 38 45 45 39 38 41 42 45 43 47 37 37 36 34 32 31 32 34 28 30 30 25 38 28 31 25 27 27 30 32 32 34 35 31 32

GFSGBSN_sfc_temp_129.txt.gz
Temp
59 59 59 59 59 60 61 62 61 60 60 60 60 60 61 61 61 60 59 59 59 59 58 59 59 59 58 55 59 68 68 68 66 66 63 60 58 54 49 52 54 50 53 57 59 58 56
59 59 58 59 59 59 59 60 60 60 59 59 59 59 60 60 60 60 59 59 58 58 58 58 59 59 54 50 68 68 66 65 64 62 60 61 57 59 53 52 49 54 54 55 56 57 56
58 58 59 58 58 58 58 58 58 59 59 59 59 59 59 59 60 59 59 59 58 57 57 58 59 57 51 55 65 63 66 62 64 64 59 62 61 58 57 53 57 56 50 53 55 53 53
59 59 59 59 58 58 58 58 58 58 59 59 59 59 58 58 58 58 58 57 57 57 57 57 58 52 48 67 62 64 62 64 68 65 64 65 62 57 54 57 55 50 46 42 54 57 56
60 59 59 59 59 59 58 58 58 59 59 59 59 58 57 57 57 57 57 57 56 56 57 57 51 49 47 66 62 67 67 64 65 64 62 71 60 52 54 44 41 42 36 41 48 56 55
59 59 59 59 59 58 58 58 58 58 58 58 58 58 57 56 56 56 55 55 55 56 58 60 58 48 54 59 64 66 63 65 61 59 59 55 48 44 42 39 33 36 37 34 39 51 50
59 59 59 58 58 58 58 59 58 57 57 58 58 58 58 57 56 54 54 53 51 49 50 52 51 54 61 66 66 65 67 63 60 54 45 48 41 38 41 44 45 43 40 38 41 50 46
58 58 58 58 58 58 59 58 58 57 57 57 57 57 57 57 55 54 54 50 53 52 44 53 54 54 60 62 55 61 66 56 52 45 46 42 38 48 49 48 45 43 39 39 44 49 47
57 57 58 58 58 58 58 58 57 56 56 56 57 57 57 56 54 53 52 51 59 57 46 50 55 54 57 59 54 55 62 55 50 46 45 40 46 52 48 45 43 42 39 39 41 43 43
57 56 57 57 57 57 57 57 57 57 56 56 56 56 54 54 52 51 50 54 59 56 35 42 48 54 58 58 51 62 64 57 50 46 45 43 50 49 46 44 45 37 47 46 42 38 31
56 56 56 56 57 56 56 56 56 56 56 56 56 55 53 57 49 49 54 57 56 54 22 49 51 63 58 53 54 54 61 55 46 46 46 42 45 43 42 45 48 43 48 45 42 34 31
56 55 55 55 55 55 56 55 55 55 55 55 55 54 54 52 51 49 52 54 54 34 23 44 52 49 48 51 52 54 54 57 54 47 46 45 49 48 47 50 50 50 43 39 35 33 26
55 55 55 55 55 55 55 55 55 55 55 55 54 54 54 54 49 51 52 48 34 27 46 43 45 49 47 46 48 49 47 44 40 36 34 41 44 48 51 43 45 42 36 25 23 23 24
54 54 55 55 55 55 55 54 54 54 54 55 54 53 54 53 50 52 50 40 29 38 39 50 48 46 43 46 46 46 43 39 43 40 34 32 31 42 47 43 40 37 36 27 22 21 26
53 53 54 54 54 54 54 54 54 54 54 54 53 50 48 51 52 50 43 32 32 38 46 46 48 41 40 45 45 43 40 38 43 44 35 31 33 45 47 46 45 38 32 37 31 29 23
53 53 53 53 54 54 54 54 54 54 54 53 47 46 45 50 51 47 40 36 37 46 49 48 41 44 37 41 40 40 38 45 44 46 45 39 31 41 45 46 44 41 44 29 28 22 21
52 53 53 52 53 53 54 54 54 54 53 51 44 40 45 50 49 41 33 37 41 48 50 45 42 41 42 40 41 38 41 45 46 44 46 41 36 35 41 37 36 36 32 34 33 29 21
52 52 52 52 52 53 53 53 53 53 53 49 42 33 45 48 36 34 33 40 45 46 49 47 46 45 42 43 40 39 39 45 46 45 40 41 34 27 34 41 41 38 35 34 24 26 27
51 51 51 51 51 51 52 53 53 53 52 44 38 36 45 45 32 31 35 39 42 42 44 44 43 46 45 41 36 40 40 43 43 41 39 40 31 22 29 33 37 33 35 36 33 28 25
50 50 51 51 51 51 51 52 52 52 52 45 36 31 36 39 34 36 34 36 38 44 43 45 44 45 41 38 42 37 37 41 42 41 46 42 32 28 27 30 32 28 33 35 31 20 25
49 50 50 50 50 50 51 51 52 52 52 44 37 32 34 29 33 36 36 36 36 36 43 45 41 41 38 34 36 35 36 37 40 43 39 36 30 24 30 33 33 31 30 32 26 31 22
49 49 50 50 50 48 48 51 51 51 51 40 33 33 32 30 35 34 36 35 34 37 39 39 36 41 40 36 37 33 36 35 37 39 36 34 25 20 16 32 32 27 30 31 28 29 27
49 49 49 49 50 49 49 48 50 51 49 38 41 39 35 33 31 33 34 36 36 37 40 43 40 38 37 40 43 44 46 44 42 36 32 29 21 17 18 29 29 21 28 28 27 31 31
48 48 49 49 49 50 49 50 50 50 50 40 40 41 34 28 32 33 37 37 36 37 34 41 43 38 42 46 46 46 43 42 39 37 36 25 22 24 19 25 14 28 34 34 31 33 33
48 48 48 48 49 49 49 49 50 50 51 43 40 41 36 28 35 36 37 37 39 39 36 37 43 45 45 43 35 33 30 33 35 36 33 32 27 21 21 21 26 33 32 31 29 29 32
47 48 48 47 48 48 49 49 49 50 50 45 41 42 39 33 32 41 36 37 32 32 34 37 42 42 44 36 31 26 24 28 28 31 35 33 30 27 23 17 16 29 35 39 37 19 31
47 47 47 48 48 48 49 49 49 49 50 45 40 42 40 33 36 41 34 35 36 33 30 35 39 41 43 32 29 27 25 34 26 26 26 25 24 25 25 23 27 36 37 39 19 24 31
47 47 47 47 47 48 48 48 48 49 49 45 42 42 40 34 37 40 44 37 36 36 29 33 35 37 33 32 30 27 24 30 28 32 28 28 24 23 26 23 21 37 35 29 30 30 31
46 46 47 47 47 47 47 48 48 49 49 48 39 43 43 37 36 41 43 44 44 45 36 35 36 32 32 33 30 30 29 26 28 22 38 28 32 27 30 29 32 33 31 33 33 31 30

GFSGBSN_sfc_temp_135.txt.gz
Temp
59 59 59 59 59 60 62 62 61 60 60 60 60 60 61 61 61 61 60 59 59 59 59 59 60 60 63 59 62 70 69 70 72 71 67 66 63 61 58 59 60 58 59 61 63 61 62
58 58 58 59 58 59 60 59 59 59 59 59 59 59 60 60 61 60 60 59 59 58 58 59 59 59 60 53 71 69 69 71 70 70 68 67 64 64 60 58 58 59 59 60 61 63 61
58 58 57 58 58 58 58 58 58 58 58 58 59 59 59 59 59 59 59 59 58 58 58 58 59 59 54 58 68 68 68 68 70 70 66 68 68 65 62 58 61 59 56 59 61 62 62
58 58 58 57 57 57 57 57 57 58 58 58 58 58 58 58 58 58 58 58 58 58 58 58 59 57 52 67 67 66 67 68 69 70 69 70 69 64 61 62 58 55 53 52 60 60 60
59 58 57 57 57 57 57 57 57 57 58 57 57 57 57 57 56 56 56 57 57 57 57 58 56 54 53 67 63 68 69 66 67 68 68 70 65 57 59 53 51 49 48 47 53 57 59
60 59 59 59 58 58 58 57 57 56 57 57 57 57 57 57 57 55 55 56 56 57 58 60 58 51 60 60 66 67 67 68 65 64 62 60 55 52 51 51 44 44 45 45 47 55 56
60 60 59 59 59 59 59 59 57 56 57 57 57 57 57 57 56 54 54 53 51 50 53 53 54 55 58 64 67 66 67 66 64 61 53 53 52 47 49 49 50 48 46 44 48 54 51
59 59 59 59 59 59 59 59 58 57 57 57 57 57 57 57 55 55 56 52 53 56 48 54 54 54 59 62 56 62 68 60 57 51 52 50 46 52 52 50 49 46 43 44 48 51 50
57 58 58 59 59 59 58 58 57 57 57 56 56 57 57 56 55 54 54 55 60 59 47 51 54 54 57 60 55 58 63 58 54 49 48 47 51 51 50 48 46 45 43 43 46 50 51
57 57 57 58 58 58 58 57 57 57 57 56 56 56 54 54 52 54 52 59 59 59 41 44 49 54 56 58 51 64 66 61 53 50 48 47 52 49 48 47 48 42 50 48 46 44 41
56 56 56 57 57 57 56 57 57 56 57 56 55 55 53 56 51 51 56 59 58 54 28 49 48 62 57 54 55 55 62 59 51 48 50 47 47 45 44 47 50 46 50 48 47 45 41
55 55 56 56 56 56 56 56 56 56 56 56 55 55 54 52 52 54 55 57 55 38 27 44 50 48 48 51 53 56 56 59 57 50 49 49 54 52 52 51 51 52 48 44 41 42 35
54 55 55 55 55 55 55 55 55 55 55 55 55 55 54 55 51 52 53 50 36 29 46 42 44 47 46 45 48 50 48 46 44 38 39 45 47 52 53 48 50 48 44 35 34 32 33
54 54 54 55 55 55 55 55 55 54 55 55 55 54 54 53 52 52 51 41 27 38 38 49 47 45 43 47 47 47 45 43 47 45 39 38 37 46 50 49 45 43 44 35 26 28 35
53 54 54 54 54 55 55 55 54 54 54 54 54 51 50 51 50 51 45 32 35 38 44 44 46 42 41 46 46 46 44 43 47 47 42 37 39 49 50 50 50 41 39 44 38 34 31
53 53 53 53 54 53 54 54 54 54 54 54 47 46 47 51 51 48 40 36 39 46 48 48 41 44 38 41 42 43 41 47 46 48 51 43 37 45 47 51 48 46 48 36 36 27 25
52 53 53 53 53 53 53 53 54 54 53 53 45 40 46 51 50 42 33 38 42 47 48 45 43 42 43 40 43 40 42 46 48 46 49 45 43 40 45 43 43 42 39 38 39 36 29
50 51 52 53 53 53 53 52 53 54 53 50 43 34 46 50 37 35 34 41 46 45 48 47 47 45 44 43 41 41 41 44 45 47 44 46 41 35 40 43 45 44 42 42 34 33 34
50 50 50 51 52 52 52 52 52 53 53 45 38 37 45 46 32 32 39 39 44 43 44 44 44 46 47 43 39 42 43 43 44 45 43 44 39 33 35 40 42 40 41 40 38 36 33
49 48 50 51 51 52 52 52 51 52 53 46 36 31 37 39 39 38 36 37 37 45 44 46 45 47 44 42 44 40 40 43 44 43 46 46 39 34 34 37 39 35 37 39 39 32 35
48 47 46 50 51 51 51 52 51 51 52 46 37 33 37 30 34 36 39 39 37 37 45 46 42 43 41 37 39 38 40 41 43 45 43 43 37 30 35 38 39 37 37 37 33 38 32
48 46 46 47 49 51 51 51 51 51 51 42 33 34 34 34 38 36 37 36 37 39 39 38 39 42 41 38 41 36 39 39 40 41 40 39 32 29 25 35 36 32 35 36 34 35 33
49 49 48 48 49 50 51 51 51 50 48 37 40 40 39 35 35 33 34 37 37 41 41 44 42 40 39 41 44 45 46 46 45 41 37 36 30 30 29 34 34 28 32 32 36 37 37
49 49 49 49 49 50 50 50 50 50 48 39 39 39 35 30 34 35 37 39 37 39 34 41 43 40 44 47 46 45 43 43 43 40 41 31 32 32 28 30 21 35 38 39 36 39 39
48 49 49 49 49 49 49 50 50 50 49 41 41 40 36 31 35 35 36 37 39 39 38 38 42 46 47 44 37 35 33 36 36 37 36 36 34 28 27 26 33 38 38 35 33 36 42
48 48 48 48 48 48 49 49 49 49 49 43 42 43 39 35 33 40 36 37 34 35 35 38 43 45 44 37 34 28 26 30 31 31 36 35 36 34 27 23 22 35 40 42 41 29 40
47 47 48 48 48 48 48 48 48 48 48 41 39 43 39 33 37 40 35 35 38 36 34 37 40 40 42 34 30 29 29 36 29 28 28 28 28 27 28 26 32 41 41 42 28 33 37
47 47 47 47 47 47 47 48 48 48 48 42 38 43 40 34 36 41 41 38 38 38 33 36 37 37 34 32 33 32 30 33 33 35 32 31 28 27 30 25 23 41 39 35 40 37 38
46 46 46 47 47 47 47 48 48 47 47 43 36 42 42 36 37 42 43 43 41 40 39 38 38 37 38 36 34 34 30 32 33 29 37 32 36 32 34 34 40 43 43 43 41 40 37